Observation data for Crowell on 12/09/2018      Previous  Date  Next       Current Mesonet Observations  Soil Data  Daily Summary Page  Observations in Plain Language
KCR1 090600Z 32007KT M00/M04 A3033 RMK A01 T10021040  RH  076%=      5-min Rain = 0
KCR1 090601Z 32007KT M00/M04 A3033 RMK A01 T10031040  RH  076%=      5-min Rain = 0
KCR1 090602Z 32007KT M00/M04 A3034 RMK A01 T10031041  RH  075%=      5-min Rain = 0
KCR1 090603Z 32007KT M00/M04 A3034 RMK A01 T10021041  RH  075%=      5-min Rain = 0
KCR1 090604Z 32007KT M00/M04 A3033 RMK A01 T10021042  RH  074%=      5-min Rain = 0
KCR1 090605Z 32007KT M00/M04 A3033 RMK A01 T10011043  RH  073%=      5-min Rain = 0
KCR1 090606Z 33006KT M00/M04 A3033 RMK A01 T10011043  RH  073%=      5-min Rain = 0
KCR1 090607Z 32006KT M00/M04 A3034 RMK A01 T10011043  RH  073%=      5-min Rain = 0
KCR1 090608Z 32006KT M00/M04 A3034 RMK A01 T10011043  RH  073%=      5-min Rain = 0
KCR1 090609Z 32006KT M00/M04 A3033 RMK A01 T10011043  RH  073%=      5-min Rain = 0
KCR1 090610Z 33007KT M00/M04 A3033 RMK A01 T10011043  RH  073%=      5-min Rain = 0
KCR1 090611Z 33006KT M00/M04 A3033 RMK A01 T10011043  RH  073%=      5-min Rain = 0
KCR1 090612Z 33006KT M00/M04 A3033 RMK A01 T10011043  RH  073%=      5-min Rain = 0
KCR1 090613Z 33006KT M00/M04 A3033 RMK A01 T10011043  RH  073%=      5-min Rain = 0
KCR1 090614Z 33006KT M00/M04 A3033 RMK A01 T10011043  RH  073%=      5-min Rain = 0
KCR1 090615Z 33006KT M00/M04 A3033 RMK A01 T10011043  RH  073%=      5-min Rain = 0
KCR1 090616Z 32006KT M00/M04 A3033 RMK A01 T10011043  RH  073%=      5-min Rain = 0
KCR1 090617Z 32006KT M00/M04 A3033 RMK A01 T10011043  RH  073%=      5-min Rain = 0
KCR1 090618Z 32006KT M00/M04 A3033 RMK A01 T10011043  RH  073%=      5-min Rain = 0
KCR1 090619Z 32006KT M00/M04 A3033 RMK A01 T10011044  RH  073%=      5-min Rain = 0
KCR1 090620Z 32006KT M00/M04 A3033 RMK A01 T10021044  RH  073%=      5-min Rain = 0
KCR1 090621Z 32006KT M00/M05 A3033 RMK A01 T10021045  RH  073%=      5-min Rain = 0
KCR1 090622Z 32006KT M00/M05 A3033 RMK A01 T10021045  RH  073%=      5-min Rain = 0
KCR1 090623Z 32006KT M00/M04 A3033 RMK A01 T10011044  RH  073%=      5-min Rain = 0
KCR1 090624Z 32006KT M00/M04 A3033 RMK A01 T10021044  RH  073%=      5-min Rain = 0
KCR1 090625Z 33007KT M00/M05 A3033 RMK A01 T10021045  RH  073%=      5-min Rain = 0
KCR1 090626Z 32007KT M00/M05 A3033 RMK A01 T10011045  RH  072%=      5-min Rain = 0
KCR1 090627Z 32007KT M00/M05 A3033 RMK A01 T10011045  RH  072%=      5-min Rain = 0
KCR1 090628Z 32007KT M00/M05 A3033 RMK A01 T10011046  RH  072%=      5-min Rain = 0
KCR1 090629Z 32007KT M00/M05 A3033 RMK A01 T10011045  RH  072%=      5-min Rain = 0
KCR1 090630Z 32006KT M00/M05 A3033 RMK A01 T10011045  RH  072%=      5-min Rain = 0
KCR1 090631Z 32007KT M00/M05 A3033 RMK A01 T10021047  RH  072%=      5-min Rain = 0
KCR1 090632Z 32006KT M00/M05 A3033 RMK A01 T10011046  RH  072%=      5-min Rain = 0
KCR1 090633Z 32006KT M00/M05 A3033 RMK A01 T10011047  RH  071%=      5-min Rain = 0
KCR1 090634Z 32006KT M00/M05 A3033 RMK A01 T10011046  RH  072%=      5-min Rain = 0
KCR1 090635Z 32006KT M00/M05 A3033 RMK A01 T10021047  RH  072%=      5-min Rain = 0
KCR1 090636Z 33007KT M00/M05 A3033 RMK A01 T10021046  RH  072%=      5-min Rain = 0
KCR1 090637Z 33007KT M00/M05 A3033 RMK A01 T10021047  RH  072%=      5-min Rain = 0
KCR1 090638Z 33007KT M00/M05 A3033 RMK A01 T10021047  RH  072%=      5-min Rain = 0
KCR1 090639Z 33006KT M00/M05 A3033 RMK A01 T10021047  RH  072%=      5-min Rain = 0
KCR1 090640Z 32006KT M00/M05 A3033 RMK A01 T10021046  RH  072%=      5-min Rain = 0
KCR1 090641Z 32007KT M00/M05 A3033 RMK A01 T10021047  RH  072%=      5-min Rain = 0
KCR1 090642Z 32007KT M00/M05 A3033 RMK A01 T10021048  RH  071%=      5-min Rain = 0
KCR1 090643Z 32007KT M00/M05 A3033 RMK A01 T10021048  RH  071%=      5-min Rain = 0
KCR1 090644Z 32006KT M00/M05 A3033 RMK A01 T10021048  RH  071%=      5-min Rain = 0
KCR1 090645Z 32006KT M00/M05 A3033 RMK A01 T10011048  RH  071%=      5-min Rain = 0
KCR1 090646Z 32006KT M00/M05 A3033 RMK A01 T10011048  RH  071%=      5-min Rain = 0
KCR1 090647Z 32006KT M00/M05 A3033 RMK A01 T10011048  RH  071%=      5-min Rain = 0
KCR1 090648Z 32006KT M00/M05 A3033 RMK A01 T10021047  RH  071%=      5-min Rain = 0
KCR1 090649Z 32006KT M00/M05 A3033 RMK A01 T10021047  RH  072%=      5-min Rain = 0
KCR1 090650Z 32007KT M00/M05 A3033 RMK A01 T10031048  RH  072%=      5-min Rain = 0
KCR1 090651Z 32007KT M00/M05 A3033 RMK A01 T10031047  RH  072%=      5-min Rain = 0
KCR1 090652Z 32006KT M00/M05 A3033 RMK A01 T10031047  RH  072%=      5-min Rain = 0
KCR1 090653Z 31006KT M00/M05 A3033 RMK A01 T10031047  RH  072%=      5-min Rain = 0
KCR1 090654Z 32006KT M00/M05 A3033 RMK A01 T10031047  RH  073%=      5-min Rain = 0
KCR1 090655Z 32006KT M00/M05 A3033 RMK A01 T10041047  RH  073%=      5-min Rain = 0
KCR1 090656Z 32006KT M00/M05 A3033 RMK A01 T10041046  RH  073%=      5-min Rain = 0
KCR1 090657Z 32006KT M00/M05 A3033 RMK A01 T10041047  RH  073%=      5-min Rain = 0
KCR1 090658Z 32006KT M00/M05 A3033 RMK A01 T10041047  RH  073%=      5-min Rain = 0
KCR1 090659Z 31007KT M00/M05 A3033 RMK A01 T10041047  RH  073%=      5-min Rain = 0
KCR1 090700Z 31007KT M00/M05 A3033 RMK A01 T10041047  RH  073%=      5-min Rain = 0
KCR1 090701Z 31007KT M00/M05 A3033 RMK A01 T10041047  RH  072%=      5-min Rain = 0
KCR1 090702Z 31007KT M00/M05 A3033 RMK A01 T10041047  RH  073%=      5-min Rain = 0
KCR1 090703Z 31007KT M00/M05 A3033 RMK A01 T10031046  RH  073%=      5-min Rain = 0
KCR1 090704Z 31007KT M00/M05 A3034 RMK A01 T10041047  RH  072%=      5-min Rain = 0
KCR1 090705Z 31007KT M00/M05 A3034 RMK A01 T10041047  RH  073%=      5-min Rain = 0
KCR1 090706Z 31006KT M00/M05 A3034 RMK A01 T10041047  RH  073%=      5-min Rain = 0
KCR1 090707Z 31006KT M01/M05 A3034 RMK A01 T10051047  RH  073%=      5-min Rain = 0
KCR1 090708Z 31006KT M01/M05 A3034 RMK A01 T10051047  RH  074%=      5-min Rain = 0
KCR1 090709Z 31006KT M01/M05 A3034 RMK A01 T10051047  RH  073%=      5-min Rain = 0
KCR1 090710Z 31006KT M01/M05 A3034 RMK A01 T10051047  RH  073%=      5-min Rain = 0
KCR1 090711Z 32007KT M01/M05 A3034 RMK A01 T10051047  RH  074%=      5-min Rain = 0
KCR1 090712Z 32007KT M01/M05 A3033 RMK A01 T10051047  RH  073%=      5-min Rain = 0
KCR1 090713Z 32007KT M00/M05 A3033 RMK A01 T10041047  RH  073%=      5-min Rain = 0
KCR1 090714Z 32007KT M00/M05 A3033 RMK A01 T10031047  RH  072%=      5-min Rain = 0
KCR1 090715Z 32008KT M00/M05 A3033 RMK A01 T10041047  RH  073%=      5-min Rain = 0
KCR1 090716Z 32007KT M00/M05 A3033 RMK A01 T10041047  RH  073%=      5-min Rain = 0
KCR1 090717Z 32007KT M00/M05 A3033 RMK A01 T10041046  RH  073%=      5-min Rain = 0
KCR1 090718Z 32007KT M00/M05 A3033 RMK A01 T10041046  RH  073%=      5-min Rain = 0
KCR1 090719Z 32008KT M00/M05 A3033 RMK A01 T10041045  RH  074%=      5-min Rain = 0
KCR1 090720Z 32007KT M01/M05 A3033 RMK A01 T10051045  RH  074%=      5-min Rain = 0
KCR1 090721Z 32007KT M01/M05 A3033 RMK A01 T10051045  RH  074%=      5-min Rain = 0
KCR1 090722Z 32007KT M01/M05 A3033 RMK A01 T10051045  RH  074%=      5-min Rain = 0
KCR1 090723Z 32007KT M01/M05 A3034 RMK A01 T10051045  RH  075%=      5-min Rain = 0
KCR1 090724Z 32007KT M01/M05 A3034 RMK A01 T10051045  RH  075%=      5-min Rain = 0
KCR1 090725Z 32007KT M01/M04 A3033 RMK A01 T10061044  RH  075%=      5-min Rain = 0
KCR1 090726Z 32006KT M01/M04 A3033 RMK A01 T10071044  RH  076%=      5-min Rain = 0
KCR1 090727Z 32007KT M01/M04 A3033 RMK A01 T10071043  RH  076%=      5-min Rain = 0
KCR1 090728Z 32007KT M01/M04 A3033 RMK A01 T10071043  RH  077%=      5-min Rain = 0
KCR1 090729Z 32006KT M01/M05 A3033 RMK A01 T10071045  RH  076%=      5-min Rain = 0
KCR1 090730Z 32007KT M01/M04 A3033 RMK A01 T10071044  RH  076%=      5-min Rain = 0
KCR1 090731Z 32007KT M01/M04 A3033 RMK A01 T10071044  RH  076%=      5-min Rain = 0
KCR1 090732Z 32007KT M01/M04 A3033 RMK A01 T10071044  RH  076%=      5-min Rain = 0
KCR1 090733Z 32007KT M01/M04 A3033 RMK A01 T10071044  RH  076%=      5-min Rain = 0
KCR1 090734Z 32007KT M01/M04 A3033 RMK A01 T10071043  RH  076%=      5-min Rain = 0
KCR1 090735Z 32008KT M01/M04 A3033 RMK A01 T10081044  RH  077%=      5-min Rain = 0
KCR1 090736Z 32007KT M01/M04 A3033 RMK A01 T10081044  RH  076%=      5-min Rain = 0
KCR1 090737Z 32008KT M01/M04 A3033 RMK A01 T10081044  RH  076%=      5-min Rain = 0
KCR1 090738Z 32008KT M01/M04 A3033 RMK A01 T10081044  RH  076%=      5-min Rain = 0
KCR1 090739Z 32008KT M01/M04 A3033 RMK A01 T10081044  RH  076%=      5-min Rain = 0
KCR1 090740Z 32008KT M01/M04 A3033 RMK A01 T10081044  RH  076%=      5-min Rain = 0
KCR1 090741Z 32008KT M01/M04 A3033 RMK A01 T10081044  RH  076%=      5-min Rain = 0
KCR1 090742Z 32008KT M01/M04 A3033 RMK A01 T10081044  RH  076%=      5-min Rain = 0
KCR1 090743Z 32008KT M01/M05 A3033 RMK A01 T10081045  RH  076%=      5-min Rain = 0
KCR1 090744Z 32009KT M01/M05 A3033 RMK A01 T10081045  RH  076%=      5-min Rain = 0
KCR1 090745Z 32009KT M01/M05 A3033 RMK A01 T10081045  RH  076%=      5-min Rain = 0
KCR1 090746Z 32008KT M01/M05 A3033 RMK A01 T10081045  RH  076%=      5-min Rain = 0
KCR1 090747Z 32008KT M01/M05 A3033 RMK A01 T10081046  RH  076%=      5-min Rain = 0
KCR1 090748Z 32008KT M01/M05 A3033 RMK A01 T10081046  RH  076%=      5-min Rain = 0
KCR1 090749Z 32008KT M01/M05 A3033 RMK A01 T10081046  RH  076%=      5-min Rain = 0
KCR1 090750Z 32007KT M01/M05 A3033 RMK A01 T10091046  RH  076%=      5-min Rain = 0
KCR1 090751Z 31007KT M01/M05 A3033 RMK A01 T10101046  RH  076%=      5-min Rain = 0
KCR1 090752Z 32007KT M01/M05 A3033 RMK A01 T10101047  RH  076%=      5-min Rain = 0
KCR1 090753Z 32007KT M01/M05 A3033 RMK A01 T10101047  RH  076%=      5-min Rain = 0
KCR1 090754Z 32007KT M01/M05 A3033 RMK A01 T10101046  RH  076%=      5-min Rain = 0
KCR1 090755Z 32008KT M01/M05 A3033 RMK A01 T10101047  RH  076%=      5-min Rain = 0
KCR1 090756Z 32008KT M01/M05 A3033 RMK A01 T10101047  RH  076%=      5-min Rain = 0
KCR1 090757Z 32008KT M01/M05 A3033 RMK A01 T10101048  RH  075%=      5-min Rain = 0
KCR1 090758Z 32008KT M01/M05 A3033 RMK A01 T10101048  RH  075%=      5-min Rain = 0
KCR1 090759Z 32008KT M01/M05 A3033 RMK A01 T10101048  RH  075%=      5-min Rain = 0
KCR1 090800Z 32008KT M01/M05 A3033 RMK A01 T10101047  RH  076%=      5-min Rain = 0
KCR1 090801Z 32008KT M01/M05 A3033 RMK A01 T10101047  RH  076%=      5-min Rain = 0
KCR1 090802Z 32008KT M01/M05 A3033 RMK A01 T10101047  RH  076%=      5-min Rain = 0
KCR1 090803Z 33009KT M01/M05 A3033 RMK A01 T10111048  RH  076%=      5-min Rain = 0
KCR1 090804Z 33008KT M01/M05 A3033 RMK A01 T10101048  RH  076%=      5-min Rain = 0
KCR1 090805Z 33008KT M01/M05 A3033 RMK A01 T10101048  RH  076%=      5-min Rain = 0
KCR1 090806Z 33009KT M01/M05 A3033 RMK A01 T10101047  RH  076%=      5-min Rain = 0
KCR1 090807Z 33008KT M01/M05 A3033 RMK A01 T10111048  RH  076%=      5-min Rain = 0
KCR1 090808Z 33009KT M01/M05 A3033 RMK A01 T10111048  RH  076%=      5-min Rain = 0
KCR1 090809Z 32009KT M01/M05 A3033 RMK A01 T10111048  RH  076%=      5-min Rain = 0
KCR1 090810Z 32008KT M01/M05 A3033 RMK A01 T10111048  RH  076%=      5-min Rain = 0
KCR1 090811Z 32008KT M01/M05 A3033 RMK A01 T10121047  RH  077%=      5-min Rain = 0
KCR1 090812Z 32009KT M01/M05 A3033 RMK A01 T10131047  RH  077%=      5-min Rain = 0
KCR1 090813Z 32008KT M01/M05 A3033 RMK A01 T10131048  RH  077%=      5-min Rain = 0
KCR1 090814Z 32008KT M01/M05 A3033 RMK A01 T10131048  RH  077%=      5-min Rain = 0
KCR1 090815Z 32007KT M01/M05 A3033 RMK A01 T10131048  RH  077%=      5-min Rain = 0
KCR1 090816Z 32008KT M01/M05 A3034 RMK A01 T10131048  RH  077%=      5-min Rain = 0
KCR1 090817Z 32008KT M01/M05 A3034 RMK A01 T10141048  RH  077%=      5-min Rain = 0
KCR1 090818Z 32008KT M01/M05 A3034 RMK A01 T10141048  RH  077%=      5-min Rain = 0
KCR1 090819Z 32008KT M01/M05 A3034 RMK A01 T10141048  RH  077%=      5-min Rain = 0
KCR1 090820Z 32008KT M01/M05 A3034 RMK A01 T10141048  RH  077%=      5-min Rain = 0
KCR1 090821Z 32007KT M02/M05 A3034 RMK A01 T10151048  RH  078%=      5-min Rain = 0
KCR1 090822Z 32008KT M02/M05 A3034 RMK A01 T10151049  RH  078%=      5-min Rain = 0
KCR1 090823Z 32008KT M02/M05 A3034 RMK A01 T10151049  RH  078%=      5-min Rain = 0
KCR1 090824Z 32008KT M02/M05 A3034 RMK A01 T10151049  RH  078%=      5-min Rain = 0
KCR1 090825Z 32009KT M02/M05 A3034 RMK A01 T10151050  RH  077%=      5-min Rain = 0
KCR1 090826Z 32009KT M02/M05 A3034 RMK A01 T10151050  RH  077%=      5-min Rain = 0
KCR1 090827Z 32008KT M02/M05 A3034 RMK A01 T10151051  RH  077%=      5-min Rain = 0
KCR1 090828Z 32008KT M02/M05 A3034 RMK A01 T10151050  RH  077%=      5-min Rain = 0
KCR1 090829Z 32008KT M02/M05 A3034 RMK A01 T10151050  RH  077%=      5-min Rain = 0
KCR1 090830Z 32007KT M02/M05 A3034 RMK A01 T10151051  RH  077%=      5-min Rain = 0
KCR1 090831Z 32007KT M02/M05 A3034 RMK A01 T10161050  RH  077%=      5-min Rain = 0
KCR1 090832Z 32008KT M02/M05 A3034 RMK A01 T10161050  RH  078%=      5-min Rain = 0
KCR1 090833Z 32007KT M02/M05 A3034 RMK A01 T10171050  RH  078%=      5-min Rain = 0
KCR1 090834Z 32007KT M02/M05 A3034 RMK A01 T10171051  RH  078%=      5-min Rain = 0
KCR1 090835Z 32007KT M02/M05 A3034 RMK A01 T10171051  RH  078%=      5-min Rain = 0
KCR1 090836Z 32007KT M02/M05 A3034 RMK A01 T10171051  RH  078%=      5-min Rain = 0
KCR1 090837Z 32008KT M02/M05 A3034 RMK A01 T10171052  RH  077%=      5-min Rain = 0
KCR1 090838Z 32008KT M02/M05 A3034 RMK A01 T10171052  RH  077%=      5-min Rain = 0
KCR1 090839Z 32007KT M02/M05 A3034 RMK A01 T10171052  RH  077%=      5-min Rain = 0
KCR1 090840Z 32006KT M02/M05 A3034 RMK A01 T10171052  RH  077%=      5-min Rain = 0
KCR1 090841Z 33007KT M02/M05 A3034 RMK A01 T10171051  RH  077%=      5-min Rain = 0
KCR1 090842Z 32007KT M02/M05 A3034 RMK A01 T10171051  RH  077%=      5-min Rain = 0
KCR1 090843Z 32006KT M02/M05 A3034 RMK A01 T10171052  RH  077%=      5-min Rain = 0
KCR1 090844Z 32006KT M02/M05 A3034 RMK A01 T10171052  RH  077%=      5-min Rain = 0
KCR1 090845Z 32007KT M02/M05 A3034 RMK A01 T10171052  RH  077%=      5-min Rain = 0
KCR1 090846Z 32007KT M02/M05 A3034 RMK A01 T10171053  RH  077%=      5-min Rain = 0
KCR1 090847Z 32007KT M02/M05 A3034 RMK A01 T10181053  RH  077%=      5-min Rain = 0
KCR1 090848Z 33007KT M02/M05 A3034 RMK A01 T10181053  RH  077%=      5-min Rain = 0
KCR1 090849Z 33006KT M02/M05 A3034 RMK A01 T10181053  RH  077%=      5-min Rain = 0
KCR1 090850Z 33007KT M02/M05 A3034 RMK A01 T10171052  RH  077%=      5-min Rain = 0
KCR1 090851Z 33008KT M02/M05 A3034 RMK A01 T10181053  RH  077%=      5-min Rain = 0
KCR1 090852Z 33008KT M02/M05 A3034 RMK A01 T10181054  RH  076%=      5-min Rain = 0
KCR1 090853Z 33007KT M02/M05 A3034 RMK A01 T10171053  RH  076%=      5-min Rain = 0
KCR1 090854Z 33008KT M02/M05 A3034 RMK A01 T10171053  RH  076%=      5-min Rain = 0
KCR1 090855Z 33008KT M02/M05 A3034 RMK A01 T10171053  RH  077%=      5-min Rain = 0
KCR1 090856Z 33008KT M02/M05 A3034 RMK A01 T10171054  RH  076%=      5-min Rain = 0
KCR1 090857Z 33007KT M02/M05 A3034 RMK A01 T10171053  RH  076%=      5-min Rain = 0
KCR1 090858Z 33008KT M02/M05 A3034 RMK A01 T10171052  RH  077%=      5-min Rain = 0
KCR1 090859Z 33007KT M02/M05 A3033 RMK A01 T10171052  RH  077%=      5-min Rain = 0
KCR1 090900Z 34007KT M02/M05 A3033 RMK A01 T10181052  RH  077%=      5-min Rain = 0
KCR1 090901Z 34007KT M02/M05 A3033 RMK A01 T10181052  RH  078%=      5-min Rain = 0
KCR1 090902Z 34007KT M02/M05 A3033 RMK A01 T10181052  RH  078%=      5-min Rain = 0
KCR1 090903Z 34007KT M02/M05 A3033 RMK A01 T10181051  RH  078%=      5-min Rain = 0
KCR1 090904Z 34007KT M02/M05 A3033 RMK A01 T10191051  RH  079%=      5-min Rain = 0
KCR1 090905Z 33007KT M02/M05 A3033 RMK A01 T10191050  RH  079%=      5-min Rain = 0
KCR1 090906Z 33008KT M02/M05 A3033 RMK A01 T10201050  RH  080%=      5-min Rain = 0
KCR1 090907Z 33007KT M02/M05 A3033 RMK A01 T10201051  RH  079%=      5-min Rain = 0
KCR1 090908Z 33007KT M02/M05 A3033 RMK A01 T10201052  RH  079%=      5-min Rain = 0
KCR1 090909Z 33008KT M02/M05 A3033 RMK A01 T10201052  RH  079%=      5-min Rain = 0
KCR1 090910Z 33008KT M02/M05 A3033 RMK A01 T10201053  RH  078%=      5-min Rain = 0
KCR1 090911Z 33008KT M02/M05 A3033 RMK A01 T10201054  RH  078%=      5-min Rain = 0
KCR1 090912Z 33007KT M02/M06 A3033 RMK A01 T10201055  RH  077%=      5-min Rain = 0
KCR1 090913Z 33007KT M02/M06 A3033 RMK A01 T10201055  RH  076%=      5-min Rain = 0
KCR1 090914Z 33008KT M02/M06 A3033 RMK A01 T10191056  RH  076%=      5-min Rain = 0
KCR1 090915Z 33008KT M02/M06 A3033 RMK A01 T10191056  RH  076%=      5-min Rain = 0
KCR1 090916Z 33008KT M02/M06 A3033 RMK A01 T10191057  RH  075%=      5-min Rain = 0
KCR1 090917Z 33007KT M02/M06 A3034 RMK A01 T10181057  RH  075%=      5-min Rain = 0
KCR1 090918Z 32008KT M02/M06 A3033 RMK A01 T10181056  RH  075%=      5-min Rain = 0
KCR1 090919Z 33007KT M02/M06 A3033 RMK A01 T10191056  RH  076%=      5-min Rain = 0
KCR1 090920Z 33008KT M02/M06 A3033 RMK A01 T10191056  RH  076%=      5-min Rain = 0
KCR1 090921Z 33008KT M02/M06 A3033 RMK A01 T10191057  RH  075%=      5-min Rain = 0
KCR1 090922Z 33008KT M02/M06 A3033 RMK A01 T10191057  RH  075%=      5-min Rain = 0
KCR1 090923Z 33007KT M02/M06 A3033 RMK A01 T10191057  RH  075%=      5-min Rain = 0
KCR1 090924Z 33007KT M02/M06 A3033 RMK A01 T10191056  RH  076%=      5-min Rain = 0
KCR1 090925Z 33007KT M02/M06 A3033 RMK A01 T10191057  RH  076%=      5-min Rain = 0
KCR1 090926Z 32008KT M02/M06 A3033 RMK A01 T10201057  RH  075%=      5-min Rain = 0
KCR1 090927Z 33008KT M02/M06 A3033 RMK A01 T10201058  RH  075%=      5-min Rain = 0
KCR1 090928Z 33008KT M02/M06 A3033 RMK A01 T10201058  RH  075%=      5-min Rain = 0
KCR1 090929Z 33008KT M02/M06 A3033 RMK A01 T10201058  RH  075%=      5-min Rain = 0
KCR1 090930Z 32008KT M02/M06 A3033 RMK A01 T10201057  RH  075%=      5-min Rain = 0
KCR1 090931Z 33007KT M02/M06 A3033 RMK A01 T10191057  RH  075%=      5-min Rain = 0
KCR1 090932Z 32007KT M02/M06 A3033 RMK A01 T10201058  RH  075%=      5-min Rain = 0
KCR1 090933Z 32007KT M02/M06 A3033 RMK A01 T10201058  RH  075%=      5-min Rain = 0
KCR1 090934Z 32008KT M02/M06 A3033 RMK A01 T10201058  RH  075%=      5-min Rain = 0
KCR1 090935Z 32008KT M02/M06 A3033 RMK A01 T10201058  RH  075%=      5-min Rain = 0
KCR1 090936Z 32008KT M02/M06 A3033 RMK A01 T10201058  RH  075%=      5-min Rain = 0
KCR1 090937Z 32008KT M02/M06 A3033 RMK A01 T10201059  RH  075%=      5-min Rain = 0
KCR1 090938Z 32007KT M02/M06 A3033 RMK A01 T10211059  RH  075%=      5-min Rain = 0
KCR1 090939Z 32007KT M02/M06 A3033 RMK A01 T10211059  RH  075%=      5-min Rain = 0
KCR1 090940Z 32008KT M02/M06 A3033 RMK A01 T10211059  RH  075%=      5-min Rain = 0
KCR1 090941Z 32008KT M02/M06 A3033 RMK A01 T10201059  RH  075%=      5-min Rain = 0
KCR1 090942Z 32007KT M02/M06 A3033 RMK A01 T10201060  RH  074%=      5-min Rain = 0
KCR1 090943Z 32007KT M02/M06 A3033 RMK A01 T10201060  RH  074%=      5-min Rain = 0
KCR1 090944Z 32007KT M02/M06 A3033 RMK A01 T10211059  RH  075%=      5-min Rain = 0
KCR1 090945Z 32007KT M02/M06 A3033 RMK A01 T10211059  RH  075%=      5-min Rain = 0
KCR1 090946Z 32008KT M02/M06 A3033 RMK A01 T10211060  RH  075%=      5-min Rain = 0
KCR1 090947Z 32008KT M02/M06 A3033 RMK A01 T10211061  RH  074%=      5-min Rain = 0
KCR1 090948Z 32008KT M02/M06 A3033 RMK A01 T10211061  RH  074%=      5-min Rain = 0
KCR1 090949Z 32008KT M02/M06 A3033 RMK A01 T10211061  RH  074%=      5-min Rain = 0
KCR1 090950Z 33009KT M02/M06 A3033 RMK A01 T10211062  RH  073%=      5-min Rain = 0
KCR1 090951Z 32008KT M02/M06 A3033 RMK A01 T10201062  RH  073%=      5-min Rain = 0
KCR1 090952Z 32008KT M02/M06 A3033 RMK A01 T10201060  RH  074%=      5-min Rain = 0
KCR1 090953Z 32008KT M02/M06 A3033 RMK A01 T10201061  RH  074%=      5-min Rain = 0
KCR1 090954Z 32008KT M02/M06 A3033 RMK A01 T10201060  RH  074%=      5-min Rain = 0
KCR1 090955Z 32009KT M02/M06 A3033 RMK A01 T10211061  RH  074%=      5-min Rain = 0
KCR1 090956Z 32008KT M02/M06 A3033 RMK A01 T10211062  RH  074%=      5-min Rain = 0
KCR1 090957Z 32007KT M02/M06 A3033 RMK A01 T10211062  RH  074%=      5-min Rain = 0
KCR1 090958Z 33008KT M02/M06 A3033 RMK A01 T10211062  RH  073%=      5-min Rain = 0
KCR1 090959Z 33009KT M02/M06 A3033 RMK A01 T10211062  RH  073%=      5-min Rain = 0
KCR1 091000Z 33008KT M02/M06 A3033 RMK A01 T10201062  RH  073%=      5-min Rain = 0
KCR1 091001Z 33008KT M02/M06 A3033 RMK A01 T10201061  RH  074%=      5-min Rain = 0
KCR1 091002Z 33008KT M02/M06 A3033 RMK A01 T10201061  RH  074%=      5-min Rain = 0
KCR1 091003Z 33009KT M02/M06 A3033 RMK A01 T10211061  RH  074%=      5-min Rain = 0
KCR1 091004Z 32008KT M02/M06 A3033 RMK A01 T10211061  RH  074%=      5-min Rain = 0
KCR1 091005Z 33009KT M02/M06 A3033 RMK A01 T10211061  RH  074%=      5-min Rain = 0
KCR1 091006Z 33008KT M02/M06 A3033 RMK A01 T10211061  RH  074%=      5-min Rain = 0
KCR1 091007Z 33008KT M02/M06 A3033 RMK A01 T10211061  RH  074%=      5-min Rain = 0
KCR1 091008Z 32008KT M02/M06 A3033 RMK A01 T10211061  RH  074%=      5-min Rain = 0
KCR1 091009Z 33008KT M02/M06 A3033 RMK A01 T10211062  RH  074%=      5-min Rain = 0
KCR1 091010Z 33008KT M02/M06 A3033 RMK A01 T10211062  RH  074%=      5-min Rain = 0
KCR1 091011Z 32009KT M02/M06 A3033 RMK A01 T10211062  RH  074%=      5-min Rain = 0
KCR1 091012Z 33009KT M02/M06 A3033 RMK A01 T10221062  RH  074%=      5-min Rain = 0
KCR1 091013Z 33009KT M02/M06 A3033 RMK A01 T10221061  RH  075%=      5-min Rain = 0
KCR1 091014Z 32009KT M02/M06 A3033 RMK A01 T10221061  RH  074%=      5-min Rain = 0
KCR1 091015Z 33009KT M02/M06 A3033 RMK A01 T10221061  RH  074%=      5-min Rain = 0
KCR1 091016Z 33008KT M02/M06 A3033 RMK A01 T10221061  RH  074%=      5-min Rain = 0
KCR1 091017Z 32008KT M02/M06 A3033 RMK A01 T10221061  RH  075%=      5-min Rain = 0
KCR1 091018Z 33008KT M02/M06 A3033 RMK A01 T10221061  RH  075%=      5-min Rain = 0
KCR1 091019Z 33008KT M02/M06 A3033 RMK A01 T10221062  RH  074%=      5-min Rain = 0
KCR1 091020Z 33009KT M02/M06 A3033 RMK A01 T10221061  RH  075%=      5-min Rain = 0
KCR1 091021Z 33008KT M02/M06 A3033 RMK A01 T10221061  RH  075%=      5-min Rain = 0
KCR1 091022Z 33008KT M02/M06 A3033 RMK A01 T10221061  RH  075%=      5-min Rain = 0
KCR1 091023Z 33008KT M02/M06 A3033 RMK A01 T10221062  RH  074%=      5-min Rain = 0
KCR1 091024Z 33009KT M02/M06 A3033 RMK A01 T10221062  RH  074%=      5-min Rain = 0
KCR1 091025Z 32009KT M02/M06 A3033 RMK A01 T10221063  RH  074%=      5-min Rain = 0
KCR1 091026Z 33009KT M02/M06 A3033 RMK A01 T10221064  RH  073%=      5-min Rain = 0
KCR1 091027Z 32009KT M02/M06 A3033 RMK A01 T10221064  RH  073%=      5-min Rain = 0
KCR1 091028Z 32009KT M02/M06 A3033 RMK A01 T10211063  RH  073%=      5-min Rain = 0
KCR1 091029Z 33008KT M02/M06 A3033 RMK A01 T10211063  RH  073%=      5-min Rain = 0
KCR1 091030Z 32009KT M02/M06 A3033 RMK A01 T10221063  RH  073%=      5-min Rain = 0
KCR1 091031Z 33009KT M02/M06 A3033 RMK A01 T10221064  RH  073%=      5-min Rain = 0
KCR1 091032Z 33008KT M02/M06 A3033 RMK A01 T10221064  RH  073%=      5-min Rain = 0
KCR1 091033Z 33009KT M02/M06 A3033 RMK A01 T10221063  RH  073%=      5-min Rain = 0
KCR1 091034Z 33009KT M02/M06 A3033 RMK A01 T10221063  RH  073%=      5-min Rain = 0
KCR1 091035Z 34008KT M02/M06 A3033 RMK A01 T10221063  RH  073%=      5-min Rain = 0
KCR1 091036Z 33008KT M02/M06 A3033 RMK A01 T10221063  RH  074%=      5-min Rain = 0
KCR1 091037Z 33008KT M02/M06 A3033 RMK A01 T10231063  RH  074%=      5-min Rain = 0
KCR1 091038Z 33008KT M02/M06 A3033 RMK A01 T10231063  RH  074%=      5-min Rain = 0
KCR1 091039Z 32008KT M02/M06 A3033 RMK A01 T10231063  RH  074%=      5-min Rain = 0
KCR1 091040Z 32008KT M02/M06 A3033 RMK A01 T10231063  RH  074%=      5-min Rain = 0
KCR1 091041Z 32009KT M02/M06 A3033 RMK A01 T10231064  RH  074%=      5-min Rain = 0
KCR1 091042Z 32009KT M02/M06 A3033 RMK A01 T10241064  RH  074%=      5-min Rain = 0
KCR1 091043Z 33008KT M02/M06 A3033 RMK A01 T10241063  RH  074%=      5-min Rain = 0
KCR1 091044Z 33008KT M02/M06 A3033 RMK A01 T10241063  RH  074%=      5-min Rain = 0
KCR1 091045Z 33008KT M02/M06 A3033 RMK A01 T10241064  RH  074%=      5-min Rain = 0
KCR1 091046Z 33008KT M02/M06 A3033 RMK A01 T10241063  RH  075%=      5-min Rain = 0
KCR1 091047Z 33008KT M03/M06 A3033 RMK A01 T10251062  RH  075%=      5-min Rain = 0
KCR1 091048Z 33007KT M03/M06 A3033 RMK A01 T10251063  RH  075%=      5-min Rain = 0
KCR1 091049Z 33008KT M03/M06 A3033 RMK A01 T10251062  RH  076%=      5-min Rain = 0
KCR1 091050Z 33008KT M03/M06 A3033 RMK A01 T10251063  RH  075%=      5-min Rain = 0
KCR1 091051Z 33008KT M03/M06 A3033 RMK A01 T10251064  RH  075%=      5-min Rain = 0
KCR1 091052Z 33008KT M03/M06 A3033 RMK A01 T10251064  RH  074%=      5-min Rain = 0
KCR1 091053Z 33008KT M03/M06 A3034 RMK A01 T10251064  RH  074%=      5-min Rain = 0
KCR1 091054Z 33009KT M03/M07 A3034 RMK A01 T10251065  RH  074%=      5-min Rain = 0
KCR1 091055Z 33008KT M03/M06 A3034 RMK A01 T10251064  RH  074%=      5-min Rain = 0
KCR1 091056Z 33008KT M03/M06 A3034 RMK A01 T10251063  RH  075%=      5-min Rain = 0
KCR1 091057Z 33008KT M03/M07 A3034 RMK A01 T10251065  RH  074%=      5-min Rain = 0
KCR1 091058Z 33009KT M03/M06 A3034 RMK A01 T10251064  RH  074%=      5-min Rain = 0
KCR1 091059Z 33009KT M02/M07 A3034 RMK A01 T10241065  RH  074%=      5-min Rain = 0
KCR1 091100Z 33008KT M02/M07 A3034 RMK A01 T10241065  RH  073%=      5-min Rain = 0
KCR1 091101Z 33009KT M02/M06 A3034 RMK A01 T10241064  RH  074%=      5-min Rain = 0
KCR1 091102Z 33008KT M02/M07 A3034 RMK A01 T10241065  RH  073%=      5-min Rain = 0
KCR1 091103Z 33009KT M02/M07 A3034 RMK A01 T10241065  RH  074%=      5-min Rain = 0
KCR1 091104Z 33009KT M02/M07 A3034 RMK A01 T10241065  RH  073%=      5-min Rain = 0
KCR1 091105Z 33010KT M02/M07 A3034 RMK A01 T10241066  RH  073%=      5-min Rain = 0
KCR1 091106Z 33009KT M02/M07 A3034 RMK A01 T10241066  RH  073%=      5-min Rain = 0
KCR1 091107Z 33008KT M02/M07 A3034 RMK A01 T10241066  RH  073%=      5-min Rain = 0
KCR1 091108Z 33009KT M03/M07 A3034 RMK A01 T10251065  RH  074%=      5-min Rain = 0
KCR1 091109Z 33009KT M03/M07 A3034 RMK A01 T10251065  RH  074%=      5-min Rain = 0
KCR1 091110Z 33009KT M03/M06 A3034 RMK A01 T10251064  RH  074%=      5-min Rain = 0
KCR1 091111Z 33009KT M03/M07 A3034 RMK A01 T10261065  RH  074%=      5-min Rain = 0
KCR1 091112Z 33008KT M03/M06 A3034 RMK A01 T10251064  RH  075%=      5-min Rain = 0
KCR1 091113Z 33008KT M03/M06 A3034 RMK A01 T10261064  RH  075%=      5-min Rain = 0
KCR1 091114Z 33008KT M03/M06 A3034 RMK A01 T10271064  RH  075%=      5-min Rain = 0
KCR1 091115Z 33008KT M03/M06 A3034 RMK A01 T10261064  RH  075%=      5-min Rain = 0
KCR1 091116Z 33009KT M03/M07 A3034 RMK A01 T10261065  RH  075%=      5-min Rain = 0
KCR1 091117Z 33008KT M03/M07 A3034 RMK A01 T10261065  RH  075%=      5-min Rain = 0
KCR1 091118Z 33008KT M03/M07 A3034 RMK A01 T10271066  RH  074%=      5-min Rain = 0
KCR1 091119Z 33008KT M03/M07 A3034 RMK A01 T10261065  RH  075%=      5-min Rain = 0
KCR1 091120Z 32010KT M03/M07 A3034 RMK A01 T10261065  RH  075%=      5-min Rain = 0
KCR1 091121Z 32009KT M03/M07 A3034 RMK A01 T10261066  RH  074%=      5-min Rain = 0
KCR1 091122Z 32009KT M03/M07 A3034 RMK A01 T10261066  RH  074%=      5-min Rain = 0
KCR1 091123Z 32008KT M03/M07 A3034 RMK A01 T10261065  RH  075%=      5-min Rain = 0
KCR1 091124Z 32008KT M03/M07 A3034 RMK A01 T10271065  RH  075%=      5-min Rain = 0
KCR1 091125Z 32008KT M03/M07 A3034 RMK A01 T10271065  RH  075%=      5-min Rain = 0
KCR1 091126Z 33008KT M03/M07 A3034 RMK A01 T10271066  RH  075%=      5-min Rain = 0
KCR1 091127Z 33008KT M03/M07 A3034 RMK A01 T10271066  RH  074%=      5-min Rain = 0
KCR1 091128Z 33008KT M03/M07 A3034 RMK A01 T10271065  RH  075%=      5-min Rain = 0
KCR1 091129Z 33009KT M03/M07 A3034 RMK A01 T10271065  RH  075%=      5-min Rain = 0
KCR1 091130Z 32009KT M03/M07 A3034 RMK A01 T10271065  RH  075%=      5-min Rain = 0
KCR1 091131Z 32008KT M03/M07 A3034 RMK A01 T10271065  RH  075%=      5-min Rain = 0
KCR1 091132Z 32009KT M03/M07 A3034 RMK A01 T10271065  RH  075%=      5-min Rain = 0
KCR1 091133Z 32008KT M03/M07 A3034 RMK A01 T10271065  RH  075%=      5-min Rain = 0
KCR1 091134Z 33009KT M03/M07 A3034 RMK A01 T10281066  RH  075%=      5-min Rain = 0
KCR1 091135Z 32008KT M03/M07 A3035 RMK A01 T10281066  RH  075%=      5-min Rain = 0
KCR1 091136Z 33009KT M03/M07 A3035 RMK A01 T10281066  RH  075%=      5-min Rain = 0
KCR1 091137Z 33008KT M03/M07 A3035 RMK A01 T10281067  RH  074%=      5-min Rain = 0
KCR1 091138Z 32008KT M03/M07 A3035 RMK A01 T10281068  RH  074%=      5-min Rain = 0
KCR1 091139Z 33008KT M03/M07 A3035 RMK A01 T10271067  RH  074%=      5-min Rain = 0
KCR1 091140Z 33008KT M03/M07 A3035 RMK A01 T10271067  RH  074%=      5-min Rain = 0
KCR1 091141Z 32008KT M03/M07 A3035 RMK A01 T10271067  RH  074%=      5-min Rain = 0
KCR1 091142Z 32009KT M03/M07 A3035 RMK A01 T10271068  RH  074%=      5-min Rain = 0
KCR1 091143Z 32008KT M03/M07 A3035 RMK A01 T10271067  RH  074%=      5-min Rain = 0
KCR1 091144Z 32009KT M03/M07 A3035 RMK A01 T10281068  RH  073%=      5-min Rain = 0
KCR1 091145Z 32008KT M03/M07 A3035 RMK A01 T10271069  RH  073%=      5-min Rain = 0
KCR1 091146Z 32008KT M03/M07 A3035 RMK A01 T10271069  RH  073%=      5-min Rain = 0
KCR1 091147Z 32009KT M03/M07 A3035 RMK A01 T10271069  RH  073%=      5-min Rain = 0
KCR1 091148Z 32010KT M03/M07 A3035 RMK A01 T10271070  RH  072%=      5-min Rain = 0
KCR1 091149Z 32008KT M03/M07 A3035 RMK A01 T10271070  RH  072%=      5-min Rain = 0
KCR1 091150Z 32010KT M03/M07 A3035 RMK A01 T10271070  RH  072%=      5-min Rain = 0
KCR1 091151Z 32008KT M03/M07 A3035 RMK A01 T10261071  RH  072%=      5-min Rain = 0
KCR1 091152Z 32009KT M03/M07 A3035 RMK A01 T10261069  RH  072%=      5-min Rain = 0
KCR1 091153Z 32008KT M03/M07 A3035 RMK A01 T10261070  RH  072%=      5-min Rain = 0
KCR1 091154Z 32010KT M03/M07 A3035 RMK A01 T10261071  RH  071%=      5-min Rain = 0
KCR1 091155Z 33008KT M03/M07 A3035 RMK A01 T10261072  RH  071%=      5-min Rain = 0
KCR1 091156Z 32008KT M03/M07 A3035 RMK A01 T10261071  RH  071%=      5-min Rain = 0
KCR1 091157Z 32009KT M03/M07 A3035 RMK A01 T10261071  RH  071%=      5-min Rain = 0
KCR1 091158Z 32009KT M03/M07 A3035 RMK A01 T10261071  RH  071%=      5-min Rain = 0
KCR1 091159Z 32009KT M03/M07 A3035 RMK A01 T10261070  RH  072%=      5-min Rain = 0
KCR1 091200Z 32009KT M03/M07 A3035 RMK A01 T10261070  RH  072%=      5-min Rain = 0
KCR1 091201Z 32009KT M03/M07 A3035 RMK A01 T10261070  RH  071%=      5-min Rain = 0
KCR1 091202Z 32009KT M03/M07 A3035 RMK A01 T10261071  RH  071%=      5-min Rain = 0
KCR1 091203Z 32008KT M03/M07 A3035 RMK A01 T10261070  RH  071%=      5-min Rain = 0
KCR1 091204Z 32009KT M03/M07 A3035 RMK A01 T10261070  RH  072%=      5-min Rain = 0
KCR1 091205Z 32009KT M03/M07 A3035 RMK A01 T10261070  RH  072%=      5-min Rain = 0
KCR1 091206Z 32009KT M03/M07 A3035 RMK A01 T10261069  RH  072%=      5-min Rain = 0
KCR1 091207Z 32008KT M03/M07 A3035 RMK A01 T10271068  RH  073%=      5-min Rain = 0
KCR1 091208Z 32009KT M03/M07 A3035 RMK A01 T10271069  RH  073%=      5-min Rain = 0
KCR1 091209Z 32009KT M03/M07 A3035 RMK A01 T10271069  RH  073%=      5-min Rain = 0
KCR1 091210Z 32009KT M03/M07 A3035 RMK A01 T10271069  RH  073%=      5-min Rain = 0
KCR1 091211Z 31009KT M03/M07 A3035 RMK A01 T10281069  RH  073%=      5-min Rain = 0
KCR1 091212Z 32009KT M03/M07 A3035 RMK A01 T10271069  RH  073%=      5-min Rain = 0
KCR1 091213Z 32009KT M03/M07 A3035 RMK A01 T10271069  RH  073%=      5-min Rain = 0
KCR1 091214Z 32009KT M03/M07 A3036 RMK A01 T10271069  RH  073%=      5-min Rain = 0
KCR1 091215Z 32009KT M03/M07 A3036 RMK A01 T10271069  RH  073%=      5-min Rain = 0
KCR1 091216Z 32008KT M03/M07 A3036 RMK A01 T10271069  RH  073%=      5-min Rain = 0
KCR1 091217Z 32009KT M03/M07 A3036 RMK A01 T10271069  RH  073%=      5-min Rain = 0
KCR1 091218Z 31009KT M03/M07 A3036 RMK A01 T10271070  RH  072%=      5-min Rain = 0
KCR1 091219Z 31008KT M03/M07 A3036 RMK A01 T10271070  RH  072%=      5-min Rain = 0
KCR1 091220Z 31009KT M03/M07 A3036 RMK A01 T10271069  RH  073%=      5-min Rain = 0
KCR1 091221Z 31009KT M03/M07 A3036 RMK A01 T10271069  RH  073%=      5-min Rain = 0
KCR1 091222Z 32009KT M03/M07 A3036 RMK A01 T10271070  RH  072%=      5-min Rain = 0
KCR1 091223Z 32009KT M03/M07 A3036 RMK A01 T10271071  RH  072%=      5-min Rain = 0
KCR1 091224Z 32009KT M03/M07 A3036 RMK A01 T10271070  RH  072%=      5-min Rain = 0
KCR1 091225Z 32009KT M03/M07 A3036 RMK A01 T10271070  RH  072%=      5-min Rain = 0
KCR1 091226Z 32008KT M03/M07 A3036 RMK A01 T10271070  RH  072%=      5-min Rain = 0
KCR1 091227Z 32009KT M03/M07 A3036 RMK A01 T10261069  RH  072%=      5-min Rain = 0
KCR1 091228Z 32009KT M03/M07 A3036 RMK A01 T10261070  RH  072%=      5-min Rain = 0
KCR1 091229Z 32009KT M03/M07 A3036 RMK A01 T10271070  RH  072%=      5-min Rain = 0
KCR1 091230Z 32009KT M03/M07 A3036 RMK A01 T10271070  RH  072%=      5-min Rain = 0
KCR1 091231Z 32010KT M03/M07 A3036 RMK A01 T10271070  RH  072%=      5-min Rain = 0
KCR1 091232Z 32010KT M03/M07 A3036 RMK A01 T10271071  RH  072%=      5-min Rain = 0
KCR1 091233Z 32010KT M03/M07 A3037 RMK A01 T10261070  RH  072%=      5-min Rain = 0
KCR1 091234Z 32010KT M03/M07 A3037 RMK A01 T10261070  RH  072%=      5-min Rain = 0
KCR1 091235Z 32009KT M03/M07 A3037 RMK A01 T10261070  RH  072%=      5-min Rain = 0
KCR1 091236Z 32010KT M03/M07 A3036 RMK A01 T10261069  RH  072%=      5-min Rain = 0
KCR1 091237Z 32009KT M03/M07 A3036 RMK A01 T10271069  RH  072%=      5-min Rain = 0
KCR1 091238Z 32009KT M03/M07 A3037 RMK A01 T10271069  RH  072%=      5-min Rain = 0
KCR1 091239Z 32009KT M03/M07 A3037 RMK A01 T10261069  RH  072%=      5-min Rain = 0
KCR1 091240Z 32010KT M03/M07 A3037 RMK A01 T10261069  RH  072%=      5-min Rain = 0
KCR1 091241Z 32009KT M03/M07 A3037 RMK A01 T10261071  RH  071%=      5-min Rain = 0
KCR1 091242Z 32010KT M03/M07 A3037 RMK A01 T10261071  RH  071%=      5-min Rain = 0
KCR1 091243Z 32009KT M03/M07 A3037 RMK A01 T10261071  RH  071%=      5-min Rain = 0
KCR1 091244Z 32010KT M03/M07 A3037 RMK A01 T10261071  RH  071%=      5-min Rain = 0
KCR1 091245Z 33010KT M03/M07 A3037 RMK A01 T10261070  RH  071%=      5-min Rain = 0
KCR1 091246Z 33009KT M03/M07 A3037 RMK A01 T10261070  RH  072%=      5-min Rain = 0
KCR1 091247Z 33009KT M03/M07 A3037 RMK A01 T10261071  RH  071%=      5-min Rain = 0
KCR1 091248Z 32009KT M03/M07 A3037 RMK A01 T10261070  RH  072%=      5-min Rain = 0
KCR1 091249Z 32008KT M03/M07 A3037 RMK A01 T10261070  RH  072%=      5-min Rain = 0
KCR1 091250Z 32009KT M03/M07 A3037 RMK A01 T10261070  RH  072%=      5-min Rain = 0
KCR1 091251Z 32009KT M03/M07 A3037 RMK A01 T10261070  RH  072%=      5-min Rain = 0
KCR1 091252Z 32009KT M03/M07 A3037 RMK A01 T10261071  RH  071%=      5-min Rain = 0
KCR1 091253Z 32009KT M03/M07 A3037 RMK A01 T10261071  RH  071%=      5-min Rain = 0
KCR1 091254Z 32009KT M03/M07 A3037 RMK A01 T10261072  RH  071%=      5-min Rain = 0
KCR1 091255Z 33009KT M03/M07 A3037 RMK A01 T10261071  RH  071%=      5-min Rain = 0
KCR1 091256Z 32009KT M03/M07 A3037 RMK A01 T10261070  RH  071%=      5-min Rain = 0
KCR1 091257Z 32009KT M03/M07 A3037 RMK A01 T10261070  RH  072%=      5-min Rain = 0
KCR1 091258Z 32009KT M03/M07 A3037 RMK A01 T10261070  RH  072%=      5-min Rain = 0
KCR1 091259Z 32010KT M03/M07 A3037 RMK A01 T10261070  RH  071%=      5-min Rain = 0
KCR1 091300Z 32009KT M03/M07 A3037 RMK A01 T10261070  RH  071%=      5-min Rain = 0
KCR1 091301Z 32010KT M03/M07 A3037 RMK A01 T10271070  RH  072%=      5-min Rain = 0
KCR1 091302Z 32010KT M03/M07 A3037 RMK A01 T10261070  RH  072%=      5-min Rain = 0
KCR1 091303Z 32010KT M03/M07 A3037 RMK A01 T10261071  RH  071%=      5-min Rain = 0
KCR1 091304Z 32009KT M03/M07 A3037 RMK A01 T10261072  RH  071%=      5-min Rain = 0
KCR1 091305Z 32009KT M03/M07 A3037 RMK A01 T10261072  RH  071%=      5-min Rain = 0
KCR1 091306Z 32009KT M03/M07 A3037 RMK A01 T10261071  RH  071%=      5-min Rain = 0
KCR1 091307Z 32009KT M03/M07 A3037 RMK A01 T10271070  RH  072%=      5-min Rain = 0
KCR1 091308Z 32010KT M03/M07 A3037 RMK A01 T10271070  RH  072%=      5-min Rain = 0
KCR1 091309Z 32010KT M03/M07 A3037 RMK A01 T10271071  RH  072%=      5-min Rain = 0
KCR1 091310Z 33009KT M03/M07 A3037 RMK A01 T10271071  RH  072%=      5-min Rain = 0
KCR1 091311Z 33010KT M03/M07 A3037 RMK A01 T10271070  RH  072%=      5-min Rain = 0
KCR1 091312Z 32010KT M03/M07 A3037 RMK A01 T10271071  RH  072%=      5-min Rain = 0
KCR1 091313Z 32009KT M03/M07 A3038 RMK A01 T10271071  RH  072%=      5-min Rain = 0
KCR1 091314Z 32009KT M03/M07 A3038 RMK A01 T10271071  RH  071%=      5-min Rain = 0
KCR1 091315Z 32009KT M03/M07 A3038 RMK A01 T10271072  RH  071%=      5-min Rain = 0
KCR1 091316Z 32008KT M03/M07 A3038 RMK A01 T10271071  RH  072%=      5-min Rain = 0
KCR1 091317Z 32008KT M03/M07 A3038 RMK A01 T10281071  RH  072%=      5-min Rain = 0
KCR1 091318Z 32009KT M03/M07 A3038 RMK A01 T10281071  RH  072%=      5-min Rain = 0
KCR1 091319Z 32009KT M03/M07 A3038 RMK A01 T10281072  RH  072%=      5-min Rain = 0
KCR1 091320Z 32009KT M03/M07 A3038 RMK A01 T10281071  RH  072%=      5-min Rain = 0
KCR1 091321Z 32010KT M03/M07 A3038 RMK A01 T10281071  RH  073%=      5-min Rain = 0
KCR1 091322Z 32010KT M03/M07 A3038 RMK A01 T10281071  RH  072%=      5-min Rain = 0
KCR1 091323Z 32009KT M03/M07 A3038 RMK A01 T10281071  RH  072%=      5-min Rain = 0
KCR1 091324Z 32009KT M03/M07 A3038 RMK A01 T10281071  RH  072%=      5-min Rain = 0
KCR1 091325Z 32008KT M03/M07 A3038 RMK A01 T10291071  RH  073%=      5-min Rain = 0
KCR1 091326Z 32008KT M03/M07 A3038 RMK A01 T10291071  RH  073%=      5-min Rain = 0
KCR1 091327Z 32008KT M03/M07 A3038 RMK A01 T10301071  RH  073%=      5-min Rain = 0
KCR1 091328Z 32008KT M03/M07 A3038 RMK A01 T10301071  RH  073%=      5-min Rain = 0
KCR1 091329Z 32008KT M03/M07 A3038 RMK A01 T10301070  RH  074%=      5-min Rain = 0
KCR1 091330Z 32009KT M03/M07 A3038 RMK A01 T10301070  RH  074%=      5-min Rain = 0
KCR1 091331Z 32008KT M03/M07 A3038 RMK A01 T10301071  RH  073%=      5-min Rain = 0
KCR1 091332Z 31007KT M03/M07 A3038 RMK A01 T10301071  RH  073%=      5-min Rain = 0
KCR1 091333Z 31008KT M03/M07 A3038 RMK A01 T10301071  RH  074%=      5-min Rain = 0
KCR1 091334Z 32008KT M03/M07 A3038 RMK A01 T10301071  RH  074%=      5-min Rain = 0
KCR1 091335Z 32007KT M03/M07 A3038 RMK A01 T10301071  RH  073%=      5-min Rain = 0
KCR1 091336Z 32007KT M03/M07 A3038 RMK A01 T10301071  RH  074%=      5-min Rain = 0
KCR1 091337Z 32007KT M03/M07 A3038 RMK A01 T10301071  RH  073%=      5-min Rain = 0
KCR1 091338Z 32008KT M03/M07 A3038 RMK A01 T10301072  RH  073%=      5-min Rain = 0
KCR1 091339Z 32007KT M03/M07 A3038 RMK A01 T10301072  RH  073%=      5-min Rain = 0
KCR1 091340Z 32006KT M03/M07 A3038 RMK A01 T10301071  RH  073%=      5-min Rain = 0
KCR1 091341Z 32007KT M03/M07 A3038 RMK A01 T10301070  RH  074%=      5-min Rain = 0
KCR1 091342Z 32007KT M03/M07 A3038 RMK A01 T10301070  RH  074%=      5-min Rain = 0
KCR1 091343Z 32007KT M03/M07 A3038 RMK A01 T10311070  RH  074%=      5-min Rain = 0
KCR1 091344Z 32006KT M03/M07 A3038 RMK A01 T10301070  RH  074%=      5-min Rain = 0
KCR1 091345Z 32007KT M03/M07 A3038 RMK A01 T10311070  RH  074%=      5-min Rain = 0
KCR1 091346Z 33007KT M03/M07 A3038 RMK A01 T10301070  RH  074%=      5-min Rain = 0
KCR1 091347Z 32007KT M03/M07 A3038 RMK A01 T10311070  RH  074%=      5-min Rain = 0
KCR1 091348Z 33007KT M03/M07 A3038 RMK A01 T10301070  RH  074%=      5-min Rain = 0
KCR1 091349Z 33008KT M03/M07 A3038 RMK A01 T10301070  RH  074%=      5-min Rain = 0
KCR1 091350Z 32008KT M03/M07 A3038 RMK A01 T10301070  RH  074%=      5-min Rain = 0
KCR1 091351Z 32008KT M03/M07 A3038 RMK A01 T10291070  RH  073%=      5-min Rain = 0
KCR1 091352Z 33008KT M03/M07 A3038 RMK A01 T10291070  RH  073%=      5-min Rain = 0
KCR1 091353Z 33007KT M03/M07 A3038 RMK A01 T10291070  RH  073%=      5-min Rain = 0
KCR1 091354Z 33008KT M03/M07 A3038 RMK A01 T10291070  RH  073%=      5-min Rain = 0
KCR1 091355Z 33008KT M03/M07 A3038 RMK A01 T10291069  RH  074%=      5-min Rain = 0
KCR1 091356Z 33008KT M03/M07 A3038 RMK A01 T10291070  RH  073%=      5-min Rain = 0
KCR1 091357Z 32008KT M03/M07 A3038 RMK A01 T10291070  RH  073%=      5-min Rain = 0
KCR1 091358Z 32008KT M03/M07 A3038 RMK A01 T10281070  RH  073%=      5-min Rain = 0
KCR1 091359Z 32007KT M03/M07 A3038 RMK A01 T10281070  RH  073%=      5-min Rain = 0
KCR1 091400Z 32008KT M03/M07 A3038 RMK A01 T10281070  RH  073%=      5-min Rain = 0
KCR1 091401Z 32007KT M03/M07 A3038 RMK A01 T10281070  RH  073%=      5-min Rain = 0
KCR1 091402Z 32007KT M03/M07 A3038 RMK A01 T10281070  RH  073%=      5-min Rain = 0
KCR1 091403Z 33007KT M03/M07 A3038 RMK A01 T10281070  RH  073%=      5-min Rain = 0
KCR1 091404Z 32007KT M03/M07 A3039 RMK A01 T10271069  RH  073%=      5-min Rain = 0
KCR1 091405Z 33007KT M03/M07 A3039 RMK A01 T10271069  RH  073%=      5-min Rain = 0
KCR1 091406Z 32008KT M03/M07 A3039 RMK A01 T10271068  RH  073%=      5-min Rain = 0
KCR1 091407Z 32007KT M03/M07 A3039 RMK A01 T10271069  RH  073%=      5-min Rain = 0
KCR1 091408Z 32008KT M03/M07 A3039 RMK A01 T10271068  RH  074%=      5-min Rain = 0
KCR1 091409Z 32008KT M03/M07 A3039 RMK A01 T10261068  RH  073%=      5-min Rain = 0
KCR1 091410Z 32008KT M03/M07 A3039 RMK A01 T10271069  RH  073%=      5-min Rain = 0
KCR1 091411Z 32007KT M03/M07 A3039 RMK A01 T10271069  RH  073%=      5-min Rain = 0
KCR1 091412Z 32008KT M03/M07 A3039 RMK A01 T10271068  RH  073%=      5-min Rain = 0
KCR1 091413Z 32008KT M03/M07 A3039 RMK A01 T10271068  RH  073%=      5-min Rain = 0
KCR1 091414Z 32007KT M03/M07 A3039 RMK A01 T10261069  RH  073%=      5-min Rain = 0
KCR1 091415Z 32008KT M03/M07 A3039 RMK A01 T10261068  RH  073%=      5-min Rain = 0
KCR1 091416Z 32007KT M03/M07 A3039 RMK A01 T10261068  RH  073%=      5-min Rain = 0
KCR1 091417Z 32008KT M03/M07 A3039 RMK A01 T10261068  RH  073%=      5-min Rain = 0
KCR1 091418Z 32007KT M03/M07 A3039 RMK A01 T10261067  RH  073%=      5-min Rain = 0
KCR1 091419Z 32007KT M03/M07 A3039 RMK A01 T10251066  RH  074%=      5-min Rain = 0
KCR1 091420Z 32008KT M03/M07 A3039 RMK A01 T10251066  RH  074%=      5-min Rain = 0
KCR1 091421Z 32008KT M03/M07 A3039 RMK A01 T10251067  RH  073%=      5-min Rain = 0
KCR1 091422Z 32008KT M03/M07 A3039 RMK A01 T10251068  RH  072%=      5-min Rain = 0
KCR1 091423Z 32007KT M02/M07 A3039 RMK A01 T10241067  RH  072%=      5-min Rain = 0
KCR1 091424Z 32009KT M02/M07 A3039 RMK A01 T10241067  RH  073%=      5-min Rain = 0
KCR1 091425Z 32008KT M02/M07 A3039 RMK A01 T10241067  RH  072%=      5-min Rain = 0
KCR1 091426Z 32008KT M02/M07 A3039 RMK A01 T10231067  RH  072%=      5-min Rain = 0
KCR1 091427Z 32009KT M02/M07 A3039 RMK A01 T10231065  RH  073%=      5-min Rain = 0
KCR1 091428Z 32009KT M02/M07 A3039 RMK A01 T10221067  RH  072%=      5-min Rain = 0
KCR1 091429Z 32009KT M02/M07 A3039 RMK A01 T10231067  RH  071%=      5-min Rain = 0
KCR1 091430Z 32009KT M02/M07 A3039 RMK A01 T10231068  RH  071%=      5-min Rain = 0
KCR1 091431Z 33009KT M02/M07 A3039 RMK A01 T10231069  RH  071%=      5-min Rain = 0
KCR1 091432Z 32008KT M02/M07 A3039 RMK A01 T10221068  RH  071%=      5-min Rain = 0
KCR1 091433Z 32009KT M02/M07 A3039 RMK A01 T10221066  RH  072%=      5-min Rain = 0
KCR1 091434Z 32009KT M02/M07 A3039 RMK A01 T10221066  RH  072%=      5-min Rain = 0
KCR1 091435Z 32010KT M02/M07 A3039 RMK A01 T10221067  RH  071%=      5-min Rain = 0
KCR1 091436Z 32008KT M02/M07 A3039 RMK A01 T10221067  RH  071%=      5-min Rain = 0
KCR1 091437Z 32009KT M02/M07 A3039 RMK A01 T10211066  RH  071%=      5-min Rain = 0
KCR1 091438Z 32008KT M02/M07 A3039 RMK A01 T10211066  RH  071%=      5-min Rain = 0
KCR1 091439Z 32009KT M02/M07 A3039 RMK A01 T10211066  RH  071%=      5-min Rain = 0
KCR1 091440Z 33009KT M02/M07 A3039 RMK A01 T10211066  RH  071%=      5-min Rain = 0
KCR1 091441Z 33009KT M02/M07 A3039 RMK A01 T10201067  RH  070%=      5-min Rain = 0
KCR1 091442Z 33008KT M02/M07 A304 RMK A01 T10201067  RH  070%=      5-min Rain = 0
KCR1 091443Z 33008KT M02/M07 A304 RMK A01 T10191065  RH  071%=      5-min Rain = 0
KCR1 091444Z 33009KT M02/M06 A304 RMK A01 T10191064  RH  071%=      5-min Rain = 0
KCR1 091445Z 33008KT M02/M06 A304 RMK A01 T10181063  RH  071%=      5-min Rain = 0
KCR1 091446Z 33009KT M02/M06 A304 RMK A01 T10181063  RH  071%=      5-min Rain = 0
KCR1 091447Z 33008KT M02/M06 A304 RMK A01 T10171063  RH  071%=      5-min Rain = 0
KCR1 091448Z 33008KT M02/M06 A304 RMK A01 T10171063  RH  071%=      5-min Rain = 0
KCR1 091449Z 33008KT M02/M06 A304 RMK A01 T10171062  RH  071%=      5-min Rain = 0
KCR1 091450Z 33009KT M02/M06 A304 RMK A01 T10161063  RH  070%=      5-min Rain = 0
KCR1 091451Z 33009KT M02/M06 A304 RMK A01 T10161064  RH  070%=      5-min Rain = 0
KCR1 091452Z 33009KT M02/M06 A304 RMK A01 T10161064  RH  070%=      5-min Rain = 0
KCR1 091453Z 34009KT M02/M06 A304 RMK A01 T10161062  RH  071%=      5-min Rain = 0
KCR1 091454Z 33009KT M02/M06 A304 RMK A01 T10151061  RH  071%=      5-min Rain = 0
KCR1 091455Z 33010KT M02/M06 A304 RMK A01 T10151062  RH  070%=      5-min Rain = 0
KCR1 091456Z 33009KT M01/M06 A304 RMK A01 T10141063  RH  069%=      5-min Rain = 0
KCR1 091457Z 33009KT M01/M06 A304 RMK A01 T10141061  RH  070%=      5-min Rain = 0
KCR1 091458Z 33010KT M01/M06 A304 RMK A01 T10131061  RH  070%=      5-min Rain = 0
KCR1 091459Z 33009KT M01/M06 A304 RMK A01 T10131062  RH  069%=      5-min Rain = 0
KCR1 091500Z 34009KT M01/M06 A304 RMK A01 T10131059  RH  071%=      5-min Rain = 0
KCR1 091501Z 33009KT M01/M06 A304 RMK A01 T10121060  RH  070%=      5-min Rain = 0
KCR1 091502Z 33011KT M01/M06 A304 RMK A01 T10121060  RH  070%=      5-min Rain = 0
KCR1 091503Z 33010KT M01/M06 A3041 RMK A01 T10121062  RH  069%=      5-min Rain = 0
KCR1 091504Z 33011KT M01/M06 A3041 RMK A01 T10121060  RH  070%=      5-min Rain = 0
KCR1 091505Z 33011KT M01/M06 A3041 RMK A01 T10111059  RH  070%=      5-min Rain = 0
KCR1 091506Z 33010KT M01/M06 A3041 RMK A01 T10111059  RH  070%=      5-min Rain = 0
KCR1 091507Z 34010KT M01/M06 A3041 RMK A01 T10101059  RH  070%=      5-min Rain = 0
KCR1 091508Z 34010KT M01/M06 A3041 RMK A01 T10101060  RH  069%=      5-min Rain = 0
KCR1 091509Z 34010KT M01/M06 A3041 RMK A01 T10091059  RH  069%=      5-min Rain = 0
KCR1 091510Z 33009KT M01/M06 A3041 RMK A01 T10091058  RH  069%=      5-min Rain = 0
KCR1 091511Z 34009KT M01/M06 A3041 RMK A01 T10081056  RH  070%=      5-min Rain = 0
KCR1 091512Z 34010KT M01/M06 A3041 RMK A01 T10071056  RH  070%=      5-min Rain = 0
KCR1 091513Z 34011KT M01/M06 A3041 RMK A01 T10081058  RH  069%=      5-min Rain = 0
KCR1 091514Z 34010KT M01/M06 A3041 RMK A01 T10081057  RH  069%=      5-min Rain = 0
KCR1 091515Z 34009KT M01/M06 A3041 RMK A01 T10081057  RH  069%=      5-min Rain = 0
KCR1 091516Z 34010KT M01/M06 A3041 RMK A01 T10071055  RH  070%=      5-min Rain = 0
KCR1 091517Z 34010KT M01/M06 A3041 RMK A01 T10071056  RH  069%=      5-min Rain = 0
KCR1 091518Z 34010KT M01/M06 A3041 RMK A01 T10061056  RH  069%=      5-min Rain = 0
KCR1 091519Z 34010KT M01/M06 A3041 RMK A01 T10071057  RH  069%=      5-min Rain = 0
KCR1 091520Z 34009KT M01/M06 A3041 RMK A01 T10061055  RH  069%=      5-min Rain = 0
KCR1 091521Z 34009KT M01/M05 A3041 RMK A01 T10051052  RH  071%=      5-min Rain = 0
KCR1 091522Z 34009KT M00/M05 A3041 RMK A01 T10041052  RH  070%=      5-min Rain = 0
KCR1 091523Z 34009KT M00/M05 A3041 RMK A01 T10041053  RH  069%=      5-min Rain = 0
KCR1 091524Z 34009KT M00/M05 A3042 RMK A01 T10041054  RH  069%=      5-min Rain = 0
KCR1 091525Z 34008KT M00/M06 A3042 RMK A01 T10041055  RH  068%=      5-min Rain = 0
KCR1 091526Z 34009KT M00/M05 A3042 RMK A01 T10031052  RH  069%=      5-min Rain = 0
KCR1 091527Z 35008KT M00/M05 A3042 RMK A01 T10021052  RH  069%=      5-min Rain = 0
KCR1 091528Z 34009KT M00/M05 A3042 RMK A01 T10011053  RH  068%=      5-min Rain = 0
KCR1 091529Z 34008KT 00/05 A3042 RMK A01 T00-00-52  RH  068%=      5-min Rain = 0
KCR1 091530Z 35008KT 00/M05 A3042 RMK A01 T00011050  RH  069%=      5-min Rain = 0
KCR1 091531Z 35009KT 00/M05 A3042 RMK A01 T00011050  RH  069%=      5-min Rain = 0
KCR1 091532Z 35010KT 00/M05 A3042 RMK A01 T00011052  RH  067%=      5-min Rain = 0
KCR1 091533Z 35009KT 00/M05 A3042 RMK A01 T00021054  RH  066%=      5-min Rain = 0
KCR1 091534Z 34008KT 00/M05 A3042 RMK A01 T00011053  RH  067%=      5-min Rain = 0
KCR1 091535Z 34009KT 00/M05 A3042 RMK A01 T00021052  RH  067%=      5-min Rain = 0
KCR1 091536Z 34009KT 00/M05 A3042 RMK A01 T00021052  RH  067%=      5-min Rain = 0
KCR1 091537Z 34009KT 00/M05 A3042 RMK A01 T00021053  RH  067%=      5-min Rain = 0
KCR1 091538Z 34008KT 00/M05 A3042 RMK A01 T00021052  RH  067%=      5-min Rain = 0
KCR1 091539Z 34009KT 00/M05 A3042 RMK A01 T00031052  RH  067%=      5-min Rain = 0
KCR1 091540Z 34009KT 00/M05 A3042 RMK A01 T00031052  RH  066%=      5-min Rain = 0
KCR1 091541Z 34009KT 00/M05 A3042 RMK A01 T00031054  RH  066%=      5-min Rain = 0
KCR1 091542Z 34008KT 00/M05 A3042 RMK A01 T00041053  RH  066%=      5-min Rain = 0
KCR1 091543Z 34009KT 00/M05 A3042 RMK A01 T00041052  RH  066%=      5-min Rain = 0
KCR1 091544Z 34008KT 00/M05 A3042 RMK A01 T00041052  RH  066%=      5-min Rain = 0
KCR1 091545Z 34008KT 01/M05 A3042 RMK A01 T00051049  RH  067%=      5-min Rain = 0
KCR1 091546Z 34008KT 01/M05 A3042 RMK A01 T00061048  RH  067%=      5-min Rain = 0
KCR1 091547Z 35009KT 01/M05 A3042 RMK A01 T00061047  RH  068%=      5-min Rain = 0
KCR1 091548Z 35009KT 01/M05 A3042 RMK A01 T00071050  RH  066%=      5-min Rain = 0
KCR1 091549Z 35008KT 01/M05 A3042 RMK A01 T00061050  RH  066%=      5-min Rain = 0
KCR1 091550Z 35009KT 01/M05 A3042 RMK A01 T00061049  RH  066%=      5-min Rain = 0
KCR1 091551Z 35009KT 01/M05 A3042 RMK A01 T00061049  RH  066%=      5-min Rain = 0
KCR1 091552Z 35008KT 01/M05 A3043 RMK A01 T00061048  RH  067%=      5-min Rain = 0
KCR1 091553Z 35008KT 01/M05 A3043 RMK A01 T00071047  RH  067%=      5-min Rain = 0
KCR1 091554Z 34009KT 01/M05 A3043 RMK A01 T00071049  RH  066%=      5-min Rain = 0
KCR1 091555Z 35008KT 01/M05 A3043 RMK A01 T00081048  RH  066%=      5-min Rain = 0
KCR1 091556Z 35009KT 01/M05 A3043 RMK A01 T00091046  RH  067%=      5-min Rain = 0
KCR1 091557Z 35007KT 01/M05 A3043 RMK A01 T00091047  RH  066%=      5-min Rain = 0
KCR1 091558Z 34007KT 01/M04 A3043 RMK A01 T00101044  RH  067%=      5-min Rain = 0
KCR1 091559Z 35007KT 01/M05 A3043 RMK A01 T00101045  RH  067%=      5-min Rain = 0
KCR1 091600Z 35008KT 01/M05 A3043 RMK A01 T00101045  RH  067%=      5-min Rain = 0
KCR1 091601Z 33007KT 01/M05 A3043 RMK A01 T00101045  RH  067%=      5-min Rain = 0
KCR1 091602Z 34007KT 01/M04 A3043 RMK A01 T00121043  RH  067%=      5-min Rain = 0
KCR1 091603Z 35007KT 01/M04 A3043 RMK A01 T00131044  RH  066%=      5-min Rain = 0
KCR1 091604Z 34007KT 01/M05 A3043 RMK A01 T00131045  RH  065%=      5-min Rain = 0
KCR1 091605Z 35008KT 01/M04 A3043 RMK A01 T00141042  RH  066%=      5-min Rain = 0
KCR1 091606Z 35007KT 02/M04 A3043 RMK A01 T00151043  RH  066%=      5-min Rain = 0
KCR1 091607Z 34006KT 01/M04 A3043 RMK A01 T00141042  RH  066%=      5-min Rain = 0
KCR1 091608Z 34007KT 02/M04 A3043 RMK A01 T00161040  RH  067%=      5-min Rain = 0
KCR1 091609Z 34007KT 02/M04 A3043 RMK A01 T00161041  RH  066%=      5-min Rain = 0
KCR1 091610Z 34009KT 02/M04 A3043 RMK A01 T00171041  RH  065%=      5-min Rain = 0
KCR1 091611Z 35008KT 02/M04 A3043 RMK A01 T00171044  RH  064%=      5-min Rain = 0
KCR1 091612Z 35007KT 02/M04 A3043 RMK A01 T00171043  RH  064%=      5-min Rain = 0
KCR1 091613Z 34006KT 02/M04 A3043 RMK A01 T00171041  RH  065%=      5-min Rain = 0
KCR1 091614Z 35006KT 02/M04 A3043 RMK A01 T00181040  RH  065%=      5-min Rain = 0
KCR1 091615Z 33007KT 02/M04 A3043 RMK A01 T00201036  RH  066%=      5-min Rain = 0
KCR1 091616Z 34008KT 02/M04 A3043 RMK A01 T00211040  RH  064%=      5-min Rain = 0
KCR1 091617Z 34007KT 02/M04 A3043 RMK A01 T00201042  RH  063%=      5-min Rain = 0
KCR1 091618Z 33007KT 02/M04 A3043 RMK A01 T00201042  RH  064%=      5-min Rain = 0
KCR1 091619Z 33006KT 02/M04 A3043 RMK A01 T00201041  RH  064%=      5-min Rain = 0
KCR1 091620Z 34007KT 02/M04 A3043 RMK A01 T00221039  RH  064%=      5-min Rain = 0
KCR1 091621Z 33007KT 02/M04 A3043 RMK A01 T00231039  RH  064%=      5-min Rain = 0
KCR1 091622Z 33008KT 02/M04 A3043 RMK A01 T00241039  RH  064%=      5-min Rain = 0
KCR1 091623Z 33008KT 03/M04 A3043 RMK A01 T00251040  RH  062%=      5-min Rain = 0
KCR1 091624Z 34007KT 02/M04 A3043 RMK A01 T00231044  RH  061%=      5-min Rain = 0
KCR1 091625Z 34007KT 02/M04 A3043 RMK A01 T00231040  RH  063%=      5-min Rain = 0
KCR1 091626Z 34007KT 02/M04 A3043 RMK A01 T00241041  RH  062%=      5-min Rain = 0
KCR1 091627Z 33006KT 02/M04 A3043 RMK A01 T00241039  RH  063%=      5-min Rain = 0
KCR1 091628Z 33007KT 03/M04 A3043 RMK A01 T00251040  RH  062%=      5-min Rain = 0
KCR1 091629Z 34007KT 03/M04 A3043 RMK A01 T00261042  RH  061%=      5-min Rain = 0
KCR1 091630Z 34007KT 03/M04 A3043 RMK A01 T00261042  RH  061%=      5-min Rain = 0
KCR1 091631Z 33008KT 03/M04 A3043 RMK A01 T00261041  RH  061%=      5-min Rain = 0
KCR1 091632Z 34008KT 03/M04 A3043 RMK A01 T00261044  RH  060%=      5-min Rain = 0
KCR1 091633Z 34005KT 03/M04 A3043 RMK A01 T00261043  RH  060%=      5-min Rain = 0
KCR1 091634Z 32005KT 03/M04 A3043 RMK A01 T00271038  RH  062%=      5-min Rain = 0
KCR1 091635Z 33006KT 03/M04 A3043 RMK A01 T00281035  RH  063%=      5-min Rain = 0
KCR1 091636Z 34007KT 03/M04 A3043 RMK A01 T00291038  RH  061%=      5-min Rain = 0
KCR1 091637Z 34007KT 03/M04 A3043 RMK A01 T00291043  RH  059%=      5-min Rain = 0
KCR1 091638Z 35007KT 03/M04 A3043 RMK A01 T00291040  RH  061%=      5-min Rain = 0
KCR1 091639Z 36007KT 03/M05 A3043 RMK A01 T00301045  RH  058%=      5-min Rain = 0
KCR1 091640Z 35006KT 03/M05 A3043 RMK A01 T00281050  RH  056%=      5-min Rain = 0
KCR1 091641Z 35006KT 03/M05 A3043 RMK A01 T00281049  RH  057%=      5-min Rain = 0
KCR1 091642Z 34005KT 03/M04 A3043 RMK A01 T00281044  RH  059%=      5-min Rain = 0
KCR1 091643Z 34007KT 03/M04 A3043 RMK A01 T00301039  RH  060%=      5-min Rain = 0
KCR1 091644Z 33007KT 03/M04 A3043 RMK A01 T00311043  RH  058%=      5-min Rain = 0
KCR1 091645Z 35008KT 03/M05 A3043 RMK A01 T00311045  RH  057%=      5-min Rain = 0
KCR1 091646Z 36007KT 03/M05 A3043 RMK A01 T00301047  RH  057%=      5-min Rain = 0
KCR1 091647Z 00007KT 03/M04 A3043 RMK A01 T00291044  RH  058%=      5-min Rain = 0
KCR1 091648Z 36007KT 03/M04 A3043 RMK A01 T00301041  RH  059%=      5-min Rain = 0
KCR1 091649Z 35005KT 03/M04 A3043 RMK A01 T00311041  RH  059%=      5-min Rain = 0
KCR1 091650Z 35008KT 03/M04 A3043 RMK A01 T00331039  RH  059%=      5-min Rain = 0
KCR1 091651Z 36007KT 03/M05 A3043 RMK A01 T00331045  RH  057%=      5-min Rain = 0
KCR1 091652Z 00007KT 03/M04 A3043 RMK A01 T00331044  RH  057%=      5-min Rain = 0
KCR1 091653Z 00008KT 03/M04 A3043 RMK A01 T00341044  RH  057%=      5-min Rain = 0
KCR1 091654Z 01007KT 03/M05 A3043 RMK A01 T00331046  RH  056%=      5-min Rain = 0
KCR1 091655Z 35008KT 03/M04 A3043 RMK A01 T00341038  RH  059%=      5-min Rain = 0
KCR1 091656Z 34007KT 04/M04 A3043 RMK A01 T00351038  RH  059%=      5-min Rain = 0
KCR1 091657Z 36006KT 04/M04 A3043 RMK A01 T00361042  RH  057%=      5-min Rain = 0
KCR1 091658Z 36006KT 04/M04 A3043 RMK A01 T00351041  RH  057%=      5-min Rain = 0
KCR1 091659Z 34008KT 04/M04 A3043 RMK A01 T00351041  RH  057%=      5-min Rain = 0
KCR1 091700Z 34009KT 04/M04 A3043 RMK A01 T00351040  RH  058%=      5-min Rain = 0
KCR1 091701Z 35007KT 03/M04 A3043 RMK A01 T00341044  RH  056%=      5-min Rain = 0
KCR1 091702Z 34007KT 03/M04 A3043 RMK A01 T00331043  RH  057%=      5-min Rain = 0
KCR1 091703Z 34007KT 03/M04 A3043 RMK A01 T00341044  RH  057%=      5-min Rain = 0
KCR1 091704Z 34008KT 03/M05 A3043 RMK A01 T00341045  RH  056%=      5-min Rain = 0
KCR1 091705Z 35009KT 03/M04 A3043 RMK A01 T00341042  RH  057%=      5-min Rain = 0
KCR1 091706Z 35008KT 04/M04 A3043 RMK A01 T00351040  RH  058%=      5-min Rain = 0
KCR1 091707Z 35006KT 04/M04 A3043 RMK A01 T00351041  RH  058%=      5-min Rain = 0
KCR1 091708Z 35006KT 04/M04 A3042 RMK A01 T00351044  RH  056%=      5-min Rain = 0
KCR1 091709Z 34007KT 04/M04 A3042 RMK A01 T00351042  RH  057%=      5-min Rain = 0
KCR1 091710Z 00007KT 04/M04 A3042 RMK A01 T00351041  RH  057%=      5-min Rain = 0
KCR1 091711Z 35008KT 04/M04 A3042 RMK A01 T00371037  RH  058%=      5-min Rain = 0
KCR1 091712Z 35007KT 04/M04 A3042 RMK A01 T00371041  RH  057%=      5-min Rain = 0
KCR1 091713Z 35008KT 04/M04 A3042 RMK A01 T00371042  RH  057%=      5-min Rain = 0
KCR1 091714Z 00007KT 04/M04 A3042 RMK A01 T00371041  RH  057%=      5-min Rain = 0
KCR1 091715Z 00006KT 04/M04 A3042 RMK A01 T00371043  RH  056%=      5-min Rain = 0
KCR1 091716Z 34005KT 04/M04 A3042 RMK A01 T00381040  RH  057%=      5-min Rain = 0
KCR1 091717Z 35007KT 04/M04 A3042 RMK A01 T00391040  RH  056%=      5-min Rain = 0
KCR1 091718Z 35006KT 04/M04 A3042 RMK A01 T00401035  RH  058%=      5-min Rain = 0
KCR1 091719Z 34007KT 04/M04 A3042 RMK A01 T00411036  RH  057%=      5-min Rain = 0
KCR1 091720Z 33007KT 04/M04 A3042 RMK A01 T00421036  RH  057%=      5-min Rain = 0
KCR1 091721Z 33008KT 04/M04 A3042 RMK A01 T00431040  RH  055%=      5-min Rain = 0
KCR1 091722Z 33007KT 04/M04 A3042 RMK A01 T00431040  RH  055%=      5-min Rain = 0
KCR1 091723Z 34007KT 04/M04 A3042 RMK A01 T00441035  RH  056%=      5-min Rain = 0
KCR1 091724Z 35009KT 05/M04 A3042 RMK A01 T00461039  RH  054%=      5-min Rain = 0
KCR1 091725Z 35009KT 05/M04 A3042 RMK A01 T00461043  RH  052%=      5-min Rain = 0.01
KCR1 091726Z 35009KT 05/M05 A3042 RMK A01 T00461046  RH  051%=      5-min Rain = 0
KCR1 091727Z 34007KT 05/M05 A3042 RMK A01 T00451048  RH  051%=      5-min Rain = 0
KCR1 091728Z 35006KT 05/M04 A3042 RMK A01 T00451043  RH  053%=      5-min Rain = 0
KCR1 091729Z 35007KT 05/M04 A3042 RMK A01 T00471039  RH  054%=      5-min Rain = 0
KCR1 091730Z 36008KT 05/M04 A3042 RMK A01 T00481040  RH  053%=      5-min Rain = 0
KCR1 091731Z 35006KT 05/M05 A3042 RMK A01 T00481047  RH  050%=      5-min Rain = 0
KCR1 091732Z 34005KT 05/M05 A3042 RMK A01 T00471048  RH  050%=      5-min Rain = 0
KCR1 091733Z 34009KT 05/M04 A3042 RMK A01 T00481042  RH  052%=      5-min Rain = 0
KCR1 091734Z 35007KT 05/M04 A3042 RMK A01 T00491043  RH  051%=      5-min Rain = 0
KCR1 091735Z 34006KT 05/M05 A3042 RMK A01 T00491049  RH  049%=      5-min Rain = 0
KCR1 091736Z 35007KT 05/M05 A3042 RMK A01 T00481051  RH  049%=      5-min Rain = 0
KCR1 091737Z 34008KT 05/M05 A3042 RMK A01 T00481051  RH  049%=      5-min Rain = 0
KCR1 091738Z 34008KT 05/M05 A3042 RMK A01 T00481051  RH  048%=      5-min Rain = 0
KCR1 091739Z 34008KT 05/M05 A3042 RMK A01 T00491051  RH  048%=      5-min Rain = 0
KCR1 091740Z 34008KT 05/M05 A3042 RMK A01 T00491048  RH  050%=      5-min Rain = 0
KCR1 091741Z 33005KT 05/M05 A3042 RMK A01 T00491049  RH  049%=      5-min Rain = 0
KCR1 091742Z 35006KT 05/M05 A3042 RMK A01 T00491047  RH  050%=      5-min Rain = 0
KCR1 091743Z 36006KT 05/M04 A3041 RMK A01 T00511043  RH  051%=      5-min Rain = 0
KCR1 091744Z 01006KT 05/M05 A3041 RMK A01 T00521047  RH  049%=      5-min Rain = 0
KCR1 091745Z 01006KT 05/M05 A3041 RMK A01 T00521053  RH  047%=      5-min Rain = 0
KCR1 091746Z 35009KT 05/M05 A3041 RMK A01 T00521051  RH  047%=      5-min Rain = 0
KCR1 091747Z 35008KT 05/M05 A3041 RMK A01 T00531052  RH  047%=      5-min Rain = 0
KCR1 091748Z 36007KT 05/M06 A3041 RMK A01 T00521057  RH  045%=      5-min Rain = 0
KCR1 091749Z 34008KT 05/M06 A3041 RMK A01 T00521056  RH  046%=      5-min Rain = 0
KCR1 091750Z 35008KT 05/M06 A3041 RMK A01 T00521059  RH  045%=      5-min Rain = 0
KCR1 091751Z 35008KT 05/M05 A3041 RMK A01 T00521053  RH  047%=      5-min Rain = 0
KCR1 091752Z 35008KT 05/M05 A3041 RMK A01 T00521053  RH  047%=      5-min Rain = 0
KCR1 091753Z 01009KT 05/M06 A3041 RMK A01 T00521056  RH  045%=      5-min Rain = 0
KCR1 091754Z 01010KT 05/M05 A3041 RMK A01 T00531053  RH  046%=      5-min Rain = 0
KCR1 091755Z 02007KT 05/M06 A3041 RMK A01 T00541059  RH  044%=      5-min Rain = 0
KCR1 091756Z 02007KT 05/M06 A3041 RMK A01 T00531059  RH  044%=      5-min Rain = 0
KCR1 091757Z 02006KT 05/M06 A3041 RMK A01 T00531058  RH  045%=      5-min Rain = 0
KCR1 091758Z 03006KT 05/M06 A3041 RMK A01 T00541056  RH  045%=      5-min Rain = 0
KCR1 091759Z 02006KT 06/M06 A3041 RMK A01 T00551059  RH  044%=      5-min Rain = 0
KCR1 091800Z 02007KT 06/M05 A3041 RMK A01 T00571049  RH  047%=      5-min Rain = 0
KCR1 091801Z 36007KT 06/M05 A3041 RMK A01 T00581052  RH  045%=      5-min Rain = 0
KCR1 091802Z 35008KT 06/M05 A3041 RMK A01 T00581053  RH  045%=      5-min Rain = 0
KCR1 091803Z 35006KT 06/M06 A3041 RMK A01 T00561062  RH  043%=      5-min Rain = 0
KCR1 091804Z 01007KT 06/M06 A304 RMK A01 T00551056  RH  045%=      5-min Rain = 0
KCR1 091805Z 00007KT 06/M05 A304 RMK A01 T00581046  RH  047%=      5-min Rain = 0
KCR1 091806Z 34007KT 06/M05 A304 RMK A01 T00591047  RH  046%=      5-min Rain = 0
KCR1 091807Z 34005KT 06/M06 A304 RMK A01 T00601055  RH  043%=      5-min Rain = 0
KCR1 091808Z 36006KT 06/M06 A304 RMK A01 T00581061  RH  042%=      5-min Rain = 0
KCR1 091809Z 01005KT 06/M06 A304 RMK A01 T00571061  RH  043%=      5-min Rain = 0
KCR1 091810Z 35006KT 06/M06 A304 RMK A01 T00571059  RH  043%=      5-min Rain = 0
KCR1 091811Z 35007KT 06/M06 A304 RMK A01 T00571058  RH  043%=      5-min Rain = 0
KCR1 091812Z 00008KT 06/M06 A304 RMK A01 T00571056  RH  044%=      5-min Rain = 0
KCR1 091813Z 36008KT 06/M06 A304 RMK A01 T00571061  RH  042%=      5-min Rain = 0
KCR1 091814Z 36007KT 06/M06 A304 RMK A01 T00561062  RH  042%=      5-min Rain = 0
KCR1 091815Z 00007KT 06/M06 A304 RMK A01 T00551055  RH  045%=      5-min Rain = 0
KCR1 091816Z 35005KT 06/M06 A304 RMK A01 T00561058  RH  044%=      5-min Rain = 0
KCR1 091817Z 35004KT 06/M06 A304 RMK A01 T00561059  RH  043%=      5-min Rain = 0
KCR1 091818Z 01004KT 06/M06 A304 RMK A01 T00561061  RH  043%=      5-min Rain = 0
KCR1 091819Z 03005KT 06/M06 A3039 RMK A01 T00561061  RH  042%=      5-min Rain = 0
KCR1 091820Z 02006KT 06/M06 A3039 RMK A01 T00571062  RH  042%=      5-min Rain = 0
KCR1 091821Z 03005KT 06/M06 A3039 RMK A01 T00581060  RH  042%=      5-min Rain = 0
KCR1 091822Z 03005KT 06/M06 A3039 RMK A01 T00591064  RH  041%=      5-min Rain = 0
KCR1 091823Z 02005KT 06/M06 A3039 RMK A01 T00591062  RH  041%=      5-min Rain = 0
KCR1 091824Z 36008KT 06/M05 A3039 RMK A01 T00601052  RH  044%=      5-min Rain = 0
KCR1 091825Z 34006KT 06/M06 A3039 RMK A01 T00591057  RH  043%=      5-min Rain = 0
KCR1 091826Z 35006KT 06/M06 A3039 RMK A01 T00581061  RH  042%=      5-min Rain = 0
KCR1 091827Z 00005KT 06/M06 A3039 RMK A01 T00581055  RH  044%=      5-min Rain = 0
KCR1 091828Z 35004KT 06/M06 A3039 RMK A01 T00591062  RH  041%=      5-min Rain = 0
KCR1 091829Z 03003KT 06/M07 A3039 RMK A01 T00581065  RH  041%=      5-min Rain = 0
KCR1 091830Z 02003KT 06/M06 A3039 RMK A01 T00591060  RH  042%=      5-min Rain = 0
KCR1 091831Z 36005KT 06/M06 A3039 RMK A01 T00601056  RH  043%=      5-min Rain = 0
KCR1 091832Z 35006KT 06/M05 A3039 RMK A01 T00611050  RH  045%=      5-min Rain = 0
KCR1 091833Z 34006KT 06/M05 A3039 RMK A01 T00621050  RH  045%=      5-min Rain = 0
KCR1 091834Z 01007KT 06/M05 A3039 RMK A01 T00611054  RH  043%=      5-min Rain = 0
KCR1 091835Z 02006KT 06/M06 A3039 RMK A01 T00611055  RH  043%=      5-min Rain = 0
KCR1 091836Z 02005KT 06/M06 A3039 RMK A01 T00601060  RH  042%=      5-min Rain = 0
KCR1 091837Z 01005KT 06/M06 A3039 RMK A01 T00611056  RH  043%=      5-min Rain = 0
KCR1 091838Z 34006KT 06/M05 A3039 RMK A01 T00621053  RH  044%=      5-min Rain = 0
KCR1 091839Z 33005KT 06/M06 A3039 RMK A01 T00611057  RH  042%=      5-min Rain = 0
KCR1 091840Z 33005KT 06/M06 A3039 RMK A01 T00601056  RH  043%=      5-min Rain = 0
KCR1 091841Z 33006KT 06/M06 A3039 RMK A01 T00601057  RH  043%=      5-min Rain = 0
KCR1 091842Z 32005KT 06/M05 A3039 RMK A01 T00601054  RH  044%=      5-min Rain = 0
KCR1 091843Z 33006KT 06/M05 A3039 RMK A01 T00631049  RH  044%=      5-min Rain = 0
KCR1 091844Z 33006KT 07/M05 A3039 RMK A01 T00661049  RH  044%=      5-min Rain = 0
KCR1 091845Z 36004KT 07/M05 A3038 RMK A01 T00661051  RH  043%=      5-min Rain = 0
KCR1 091846Z 01004KT 07/M05 A3038 RMK A01 T00661051  RH  043%=      5-min Rain = 0
KCR1 091847Z 00006KT 07/M05 A3038 RMK A01 T00661051  RH  043%=      5-min Rain = 0
KCR1 091848Z 35007KT 07/M05 A3038 RMK A01 T00661047  RH  044%=      5-min Rain = 0
KCR1 091849Z 34006KT 07/M05 A3038 RMK A01 T00651051  RH  043%=      5-min Rain = 0
KCR1 091850Z 33005KT 06/M06 A3038 RMK A01 T00631059  RH  041%=      5-min Rain = 0
KCR1 091851Z 34008KT 06/M05 A3038 RMK A01 T00621054  RH  043%=      5-min Rain = 0
KCR1 091852Z 35007KT 06/M05 A3038 RMK A01 T00621054  RH  043%=      5-min Rain = 0
KCR1 091853Z 34004KT 06/M06 A3038 RMK A01 T00611063  RH  041%=      5-min Rain = 0
KCR1 091854Z 34004KT 06/M06 A3038 RMK A01 T00601058  RH  042%=      5-min Rain = 0
KCR1 091855Z 32006KT 06/M05 A3038 RMK A01 T00621052  RH  044%=      5-min Rain = 0
KCR1 091856Z 33007KT 06/M06 A3038 RMK A01 T00631055  RH  042%=      5-min Rain = 0
KCR1 091857Z 35004KT 06/M06 A3038 RMK A01 T00641055  RH  042%=      5-min Rain = 0
KCR1 091858Z 35005KT 06/M05 A3038 RMK A01 T00641048  RH  045%=      5-min Rain = 0
KCR1 091859Z 35004KT 07/M05 A3038 RMK A01 T00651050  RH  044%=      5-min Rain = 0
KCR1 091900Z 36008KT 07/M05 A3038 RMK A01 T00651048  RH  044%=      5-min Rain = 0
KCR1 091901Z 00007KT 07/M04 A3038 RMK A01 T00661044  RH  045%=      5-min Rain = 0
KCR1 091902Z 34006KT 07/M05 A3038 RMK A01 T00671049  RH  043%=      5-min Rain = 0
KCR1 091903Z 33005KT 07/M05 A3038 RMK A01 T00671053  RH  042%=      5-min Rain = 0
KCR1 091904Z 34007KT 07/M06 A3038 RMK A01 T00661057  RH  041%=      5-min Rain = 0
KCR1 091905Z 34006KT 07/M06 A3038 RMK A01 T00661058  RH  041%=      5-min Rain = 0
KCR1 091906Z 35005KT 07/M06 A3038 RMK A01 T00651061  RH  040%=      5-min Rain = 0
KCR1 091907Z 33006KT 07/M06 A3038 RMK A01 T00651061  RH  040%=      5-min Rain = 0
KCR1 091908Z 33005KT 07/M06 A3038 RMK A01 T00661058  RH  041%=      5-min Rain = 0
KCR1 091909Z 34007KT 07/M06 A3038 RMK A01 T00671057  RH  041%=      5-min Rain = 0
KCR1 091910Z 34007KT 07/M06 A3038 RMK A01 T00681059  RH  040%=      5-min Rain = 0
KCR1 091911Z 33006KT 07/M07 A3038 RMK A01 T00671066  RH  038%=      5-min Rain = 0
KCR1 091912Z 34005KT 07/M07 A3038 RMK A01 T00661069  RH  037%=      5-min Rain = 0
KCR1 091913Z 32007KT 07/M06 A3037 RMK A01 T00661064  RH  039%=      5-min Rain = 0
KCR1 091914Z 32008KT 07/M06 A3037 RMK A01 T00671058  RH  040%=      5-min Rain = 0
KCR1 091915Z 33007KT 07/M05 A3037 RMK A01 T00691053  RH  042%=      5-min Rain = 0
KCR1 091916Z 34006KT 07/M06 A3037 RMK A01 T00701057  RH  040%=      5-min Rain = 0
KCR1 091917Z 34004KT 07/M07 A3037 RMK A01 T00691066  RH  038%=      5-min Rain = 0
KCR1 091918Z 34006KT 07/M06 A3037 RMK A01 T00691057  RH  040%=      5-min Rain = 0
KCR1 091919Z 35006KT 07/M06 A3037 RMK A01 T00701055  RH  041%=      5-min Rain = 0
KCR1 091920Z 35006KT 07/M06 A3037 RMK A01 T00701062  RH  038%=      5-min Rain = 0
KCR1 091921Z 34005KT 07/M06 A3037 RMK A01 T00691062  RH  039%=      5-min Rain = 0
KCR1 091922Z 35004KT 07/M06 A3037 RMK A01 T00691064  RH  038%=      5-min Rain = 0
KCR1 091923Z 34005KT 07/M07 A3037 RMK A01 T00691066  RH  038%=      5-min Rain = 0
KCR1 091924Z 35006KT 07/M06 A3037 RMK A01 T00691061  RH  039%=      5-min Rain = 0
KCR1 091925Z 36007KT 07/M06 A3037 RMK A01 T00701056  RH  040%=      5-min Rain = 0
KCR1 091926Z 35006KT 07/M05 A3037 RMK A01 T00721054  RH  040%=      5-min Rain = 0
KCR1 091927Z 00005KT 07/M06 A3037 RMK A01 T00731056  RH  040%=      5-min Rain = 0
KCR1 091928Z 00005KT 07/M06 A3037 RMK A01 T00731058  RH  039%=      5-min Rain = 0
KCR1 091929Z 36005KT 07/M06 A3037 RMK A01 T00731063  RH  037%=      5-min Rain = 0
KCR1 091930Z 36004KT 07/M06 A3036 RMK A01 T00731063  RH  038%=      5-min Rain = 0
KCR1 091931Z 35004KT 07/M06 A3036 RMK A01 T00731064  RH  037%=      5-min Rain = 0
KCR1 091932Z 31005KT 07/M07 A3036 RMK A01 T00741069  RH  036%=      5-min Rain = 0
KCR1 091933Z 33005KT 07/M06 A3036 RMK A01 T00741064  RH  037%=      5-min Rain = 0
KCR1 091934Z 33004KT 08/M06 A3036 RMK A01 T00751059  RH  038%=      5-min Rain = 0
KCR1 091935Z 32003KT 08/M06 A3036 RMK A01 T00751057  RH  039%=      5-min Rain = 0
KCR1 091936Z 35003KT 08/M07 A3036 RMK A01 T00761067  RH  036%=      5-min Rain = 0
KCR1 091937Z 32005KT 08/M06 A3036 RMK A01 T00751063  RH  037%=      5-min Rain = 0
KCR1 091938Z 33004KT 08/M06 A3036 RMK A01 T00761063  RH  037%=      5-min Rain = 0
KCR1 091939Z 34003KT 08/M06 A3036 RMK A01 T00751064  RH  037%=      5-min Rain = 0
KCR1 091940Z 32004KT 07/M07 A3036 RMK A01 T00741065  RH  036%=      5-min Rain = 0
KCR1 091941Z 30003KT 07/M07 A3036 RMK A01 T00741068  RH  036%=      5-min Rain = 0
KCR1 091942Z 34004KT 07/M07 A3036 RMK A01 T00731067  RH  036%=      5-min Rain = 0
KCR1 091943Z 35005KT 07/M07 A3036 RMK A01 T00741065  RH  037%=      5-min Rain = 0
KCR1 091944Z 35004KT 07/M07 A3036 RMK A01 T00741072  RH  035%=      5-min Rain = 0
KCR1 091945Z 34005KT 07/M06 A3036 RMK A01 T00741064  RH  037%=      5-min Rain = 0
KCR1 091946Z 34003KT 07/M07 A3036 RMK A01 T00741069  RH  035%=      5-min Rain = 0
KCR1 091947Z 35004KT 08/M07 A3036 RMK A01 T00751065  RH  036%=      5-min Rain = 0
KCR1 091948Z 35003KT 08/M07 A3036 RMK A01 T00771069  RH  035%=      5-min Rain = 0
KCR1 091949Z 35005KT 08/M07 A3036 RMK A01 T00771069  RH  035%=      5-min Rain = 0
KCR1 091950Z 33005KT 08/M06 A3036 RMK A01 T00771062  RH  037%=      5-min Rain = 0
KCR1 091951Z 32003KT 08/M06 A3036 RMK A01 T00771062  RH  037%=      5-min Rain = 0
KCR1 091952Z 32004KT 08/M06 A3036 RMK A01 T00781059  RH  037%=      5-min Rain = 0
KCR1 091953Z 35005KT 08/M07 A3036 RMK A01 T00781068  RH  035%=      5-min Rain = 0
KCR1 091954Z 31005KT 08/M06 A3036 RMK A01 T00771064  RH  036%=      5-min Rain = 0
KCR1 091955Z 33004KT 08/M06 A3036 RMK A01 T00771063  RH  036%=      5-min Rain = 0
KCR1 091956Z 00002KT 08/M07 A3036 RMK A01 T00771070  RH  034%=      5-min Rain = 0
KCR1 091957Z 31003KT 08/M07 A3036 RMK A01 T00771066  RH  035%=      5-min Rain = 0
KCR1 091958Z 30003KT 08/M07 A3035 RMK A01 T00781066  RH  035%=      5-min Rain = 0
KCR1 091959Z 32002KT 08/M07 A3035 RMK A01 T00781071  RH  034%=      5-min Rain = 0
KCR1 092000Z 31004KT 08/M07 A3035 RMK A01 T00781065  RH  036%=      5-min Rain = 0
KCR1 092001Z 30003KT 08/M06 A3035 RMK A01 T00781063  RH  036%=      5-min Rain = 0
KCR1 092002Z 30002KT 08/M07 A3035 RMK A01 T00791068  RH  035%=      5-min Rain = 0
KCR1 092003Z 30003KT 08/M07 A3035 RMK A01 T00791066  RH  035%=      5-min Rain = 0
KCR1 092004Z 28002KT 08/M07 A3035 RMK A01 T00781072  RH  034%=      5-min Rain = 0
KCR1 092005Z 32003KT 08/M07 A3035 RMK A01 T00781065  RH  036%=      5-min Rain = 0
KCR1 092006Z 31003KT 08/M07 A3035 RMK A01 T00791067  RH  035%=      5-min Rain = 0
KCR1 092007Z 32003KT 08/M07 A3035 RMK A01 T00791065  RH  035%=      5-min Rain = 0
KCR1 092008Z 35003KT 08/M06 A3035 RMK A01 T00791057  RH  037%=      5-min Rain = 0
KCR1 092009Z 02002KT 08/M06 A3035 RMK A01 T00811059  RH  036%=      5-min Rain = 0
KCR1 092010Z 34002KT 08/M06 A3035 RMK A01 T00821064  RH  035%=      5-min Rain = 0
KCR1 092011Z 02003KT 08/M06 A3035 RMK A01 T00821063  RH  035%=      5-min Rain = 0
KCR1 092012Z 33003KT 08/M07 A3035 RMK A01 T00821066  RH  035%=      5-min Rain = 0
KCR1 092013Z 34004KT 08/M07 A3035 RMK A01 T00811067  RH  034%=      5-min Rain = 0
KCR1 092014Z 01003KT 08/M07 A3035 RMK A01 T00801071  RH  033%=      5-min Rain = 0
KCR1 092015Z 34003KT 08/M06 A3035 RMK A01 T00791060  RH  037%=      5-min Rain = 0
KCR1 092016Z 31007KT 08/M06 A3035 RMK A01 T00801057  RH  037%=      5-min Rain = 0
KCR1 092017Z 31007KT 08/M06 A3035 RMK A01 T00811060  RH  036%=      5-min Rain = 0
KCR1 092018Z 31006KT 08/M06 A3035 RMK A01 T00821064  RH  035%=      5-min Rain = 0
KCR1 092019Z 30006KT 08/M06 A3035 RMK A01 T00811063  RH  035%=      5-min Rain = 0
KCR1 092020Z 30005KT 08/M07 A3035 RMK A01 T00801068  RH  034%=      5-min Rain = 0
KCR1 092021Z 30004KT 08/M07 A3035 RMK A01 T00801065  RH  035%=      5-min Rain = 0
KCR1 092022Z 30004KT 08/M07 A3035 RMK A01 T00811067  RH  034%=      5-min Rain = 0
KCR1 092023Z 32003KT 08/M07 A3035 RMK A01 T00801074  RH  033%=      5-min Rain = 0
KCR1 092024Z 31001KT 08/M07 A3035 RMK A01 T00801073  RH  033%=      5-min Rain = 0
KCR1 092025Z 30002KT 08/M07 A3035 RMK A01 T00801069  RH  034%=      5-min Rain = 0
KCR1 092026Z 29001KT 08/M07 A3035 RMK A01 T00821065  RH  035%=      5-min Rain = 0
KCR1 092027Z 33002KT 08/M06 A3035 RMK A01 T00841064  RH  034%=      5-min Rain = 0
KCR1 092028Z 33003KT 09/M07 A3035 RMK A01 T00851067  RH  033%=      5-min Rain = 0
KCR1 092029Z 33005KT 09/M06 A3035 RMK A01 T00851060  RH  035%=      5-min Rain = 0
KCR1 092030Z 33006KT 09/M06 A3035 RMK A01 T00851060  RH  035%=      5-min Rain = 0
KCR1 092031Z 32004KT 09/M06 A3035 RMK A01 T00851063  RH  034%=      5-min Rain = 0
KCR1 092032Z 32004KT 08/M07 A3035 RMK A01 T00841067  RH  034%=      5-min Rain = 0
KCR1 092033Z 30002KT 08/M07 A3035 RMK A01 T00831071  RH  033%=      5-min Rain = 0
KCR1 092034Z 27001KT 08/M07 A3035 RMK A01 T00821070  RH  033%=      5-min Rain = 0
KCR1 092035Z 35002KT 08/M07 A3035 RMK A01 T00841068  RH  033%=      5-min Rain = 0
KCR1 092036Z 33006KT 09/M06 A3035 RMK A01 T00851060  RH  035%=      5-min Rain = 0
KCR1 092037Z 32006KT 09/M06 A3035 RMK A01 T00861059  RH  035%=      5-min Rain = 0
KCR1 092038Z 33004KT 08/M07 A3035 RMK A01 T00841070  RH  033%=      5-min Rain = 0
KCR1 092039Z 30003KT 08/M07 A3035 RMK A01 T00831069  RH  033%=      5-min Rain = 0
KCR1 092040Z 30004KT 08/M07 A3035 RMK A01 T00831071  RH  033%=      5-min Rain = 0
KCR1 092041Z 30003KT 08/M07 A3035 RMK A01 T00831073  RH  032%=      5-min Rain = 0
KCR1 092042Z 28002KT 08/M07 A3035 RMK A01 T00831069  RH  033%=      5-min Rain = 0
KCR1 092043Z 29003KT 08/M07 A3035 RMK A01 T00841070  RH  033%=      5-min Rain = 0
KCR1 092044Z 31004KT 08/M07 A3035 RMK A01 T00841071  RH  033%=      5-min Rain = 0
KCR1 092045Z 29005KT 09/M07 A3035 RMK A01 T00851069  RH  033%=      5-min Rain = 0
KCR1 092046Z 29005KT 09/M07 A3035 RMK A01 T00851069  RH  033%=      5-min Rain = 0
KCR1 092047Z 30006KT 09/M07 A3035 RMK A01 T00861065  RH  034%=      5-min Rain = 0
KCR1 092048Z 33005KT 09/M06 A3035 RMK A01 T00871059  RH  035%=      5-min Rain = 0
KCR1 092049Z 00004KT 09/M06 A3035 RMK A01 T00871063  RH  034%=      5-min Rain = 0
KCR1 092050Z 00004KT 09/M06 A3035 RMK A01 T00871058  RH  035%=      5-min Rain = 0
KCR1 092051Z 02003KT 09/M06 A3035 RMK A01 T00861063  RH  034%=      5-min Rain = 0
KCR1 092052Z 03003KT 09/M07 A3035 RMK A01 T00861070  RH  032%=      5-min Rain = 0
KCR1 092053Z 35004KT 09/M06 A3035 RMK A01 T00861061  RH  035%=      5-min Rain = 0
KCR1 092054Z 34004KT 09/M06 A3035 RMK A01 T00861064  RH  034%=      5-min Rain = 0
KCR1 092055Z 32003KT 09/M07 A3035 RMK A01 T00861070  RH  033%=      5-min Rain = 0
KCR1 092056Z 32002KT 09/M07 A3035 RMK A01 T00851071  RH  032%=      5-min Rain = 0
KCR1 092057Z 01003KT 09/M07 A3035 RMK A01 T00851066  RH  034%=      5-min Rain = 0
KCR1 092058Z 36005KT 09/M06 A3035 RMK A01 T00861059  RH  035%=      5-min Rain = 0
KCR1 092059Z 35004KT 09/M07 A3035 RMK A01 T00871065  RH  034%=      5-min Rain = 0
KCR1 092100Z 34003KT 09/M07 A3035 RMK A01 T00851069  RH  033%=      5-min Rain = 0
KCR1 092101Z 31002KT 09/M07 A3035 RMK A01 T00851069  RH  033%=      5-min Rain = 0
KCR1 092102Z 32002KT 09/M07 A3035 RMK A01 T00851068  RH  033%=      5-min Rain = 0
KCR1 092103Z 31001KT 09/M07 A3035 RMK A01 T00861069  RH  033%=      5-min Rain = 0
KCR1 092104Z 32001KT 09/M07 A3035 RMK A01 T00871067  RH  033%=      5-min Rain = 0
KCR1 092105Z 04001KT 09/M07 A3035 RMK A01 T00881074  RH  031%=      5-min Rain = 0
KCR1 092106Z 34003KT 09/M07 A3035 RMK A01 T00891067  RH  033%=      5-min Rain = 0
KCR1 092107Z 32006KT 09/M06 A3035 RMK A01 T00891060  RH  034%=      5-min Rain = 0
KCR1 092108Z 32006KT 09/M07 A3035 RMK A01 T00891067  RH  033%=      5-min Rain = 0
KCR1 092109Z 33005KT 09/M07 A3035 RMK A01 T00871073  RH  032%=      5-min Rain = 0
KCR1 092110Z 32005KT 09/M07 A3035 RMK A01 T00861071  RH  032%=      5-min Rain = 0
KCR1 092111Z 33006KT 09/M07 A3035 RMK A01 T00861066  RH  033%=      5-min Rain = 0
KCR1 092112Z 34004KT 09/M07 A3035 RMK A01 T00861067  RH  033%=      5-min Rain = 0
KCR1 092113Z 32005KT 09/M06 A3035 RMK A01 T00871061  RH  034%=      5-min Rain = 0
KCR1 092114Z 33004KT 09/M06 A3035 RMK A01 T00881064  RH  034%=      5-min Rain = 0
KCR1 092115Z 32004KT 09/M06 A3035 RMK A01 T00881061  RH  034%=      5-min Rain = 0
KCR1 092116Z 33003KT 09/M07 A3035 RMK A01 T00881068  RH  033%=      5-min Rain = 0
KCR1 092117Z 29003KT 09/M06 A3035 RMK A01 T00881064  RH  033%=      5-min Rain = 0
KCR1 092118Z 31003KT 09/M07 A3035 RMK A01 T00891066  RH  033%=      5-min Rain = 0
KCR1 092119Z 35003KT 09/M07 A3035 RMK A01 T00901068  RH  032%=      5-min Rain = 0
KCR1 092120Z 36002KT 09/M06 A3035 RMK A01 T00901063  RH  033%=      5-min Rain = 0
KCR1 092121Z 34005KT 09/M06 A3035 RMK A01 T00901058  RH  035%=      5-min Rain = 0
KCR1 092122Z 34005KT 09/M06 A3035 RMK A01 T00901061  RH  034%=      5-min Rain = 0
KCR1 092123Z 35006KT 09/M07 A3035 RMK A01 T00901065  RH  033%=      5-min Rain = 0
KCR1 092124Z 00005KT 09/M07 A3035 RMK A01 T00891067  RH  033%=      5-min Rain = 0
KCR1 092125Z 01005KT 09/M06 A3035 RMK A01 T00881063  RH  034%=      5-min Rain = 0
KCR1 092126Z 36004KT 09/M07 A3035 RMK A01 T00881066  RH  033%=      5-min Rain = 0
KCR1 092127Z 36004KT 09/M06 A3035 RMK A01 T00881064  RH  033%=      5-min Rain = 0
KCR1 092128Z 34005KT 09/M06 A3035 RMK A01 T00881058  RH  035%=      5-min Rain = 0
KCR1 092129Z 33004KT 09/M07 A3035 RMK A01 T00881066  RH  033%=      5-min Rain = 0
KCR1 092130Z 34003KT 09/M07 A3035 RMK A01 T00881071  RH  032%=      5-min Rain = 0
KCR1 092131Z 35002KT 09/M08 A3035 RMK A01 T00881075  RH  031%=      5-min Rain = 0
KCR1 092132Z 35004KT 09/M07 A3035 RMK A01 T00881074  RH  031%=      5-min Rain = 0
KCR1 092133Z 35003KT 09/M07 A3035 RMK A01 T00881071  RH  032%=      5-min Rain = 0
KCR1 092134Z 34003KT 09/M07 A3035 RMK A01 T00881065  RH  033%=      5-min Rain = 0
KCR1 092135Z 33002KT 09/M07 A3035 RMK A01 T00891074  RH  031%=      5-min Rain = 0
KCR1 092136Z 31003KT 09/M07 A3035 RMK A01 T00891072  RH  031%=      5-min Rain = 0
KCR1 092137Z 30005KT 09/M07 A3035 RMK A01 T00891067  RH  032%=      5-min Rain = 0
KCR1 092138Z 30004KT 09/M07 A3035 RMK A01 T00901069  RH  032%=      5-min Rain = 0
KCR1 092139Z 32005KT 09/M07 A3035 RMK A01 T00901069  RH  032%=      5-min Rain = 0
KCR1 092140Z 31004KT 09/M07 A3035 RMK A01 T00901066  RH  033%=      5-min Rain = 0
KCR1 092141Z 32004KT 09/M07 A3035 RMK A01 T00901070  RH  031%=      5-min Rain = 0
KCR1 092142Z 31003KT 09/M07 A3035 RMK A01 T00901070  RH  032%=      5-min Rain = 0
KCR1 092143Z 33003KT 09/M07 A3035 RMK A01 T00901065  RH  033%=      5-min Rain = 0
KCR1 092144Z 34003KT 09/M07 A3035 RMK A01 T00901069  RH  032%=      5-min Rain = 0
KCR1 092145Z 33004KT 09/M07 A3035 RMK A01 T00901070  RH  032%=      5-min Rain = 0
KCR1 092146Z 31002KT 09/M07 A3035 RMK A01 T00891074  RH  031%=      5-min Rain = 0
KCR1 092147Z 33003KT 09/M06 A3035 RMK A01 T00901063  RH  033%=      5-min Rain = 0
KCR1 092148Z 31003KT 09/M06 A3035 RMK A01 T00901060  RH  034%=      5-min Rain = 0
KCR1 092149Z 30005KT 09/M06 A3035 RMK A01 T00911060  RH  034%=      5-min Rain = 0
KCR1 092150Z 30004KT 09/M07 A3035 RMK A01 T00921071  RH  031%=      5-min Rain = 0
KCR1 092151Z 30005KT 09/M07 A3035 RMK A01 T00911072  RH  031%=      5-min Rain = 0
KCR1 092152Z 28005KT 09/M07 A3035 RMK A01 T00901069  RH  032%=      5-min Rain = 0
KCR1 092153Z 31005KT 09/M07 A3035 RMK A01 T00911069  RH  032%=      5-min Rain = 0
KCR1 092154Z 33006KT 09/M06 A3035 RMK A01 T00911064  RH  033%=      5-min Rain = 0
KCR1 092155Z 33005KT 09/M06 A3035 RMK A01 T00911062  RH  033%=      5-min Rain = 0
KCR1 092156Z 32004KT 09/M06 A3035 RMK A01 T00901064  RH  033%=      5-min Rain = 0
KCR1 092157Z 34004KT 09/M07 A3035 RMK A01 T00901066  RH  032%=      5-min Rain = 0
KCR1 092158Z 34003KT 09/M07 A3035 RMK A01 T00901068  RH  032%=      5-min Rain = 0
KCR1 092159Z 35003KT 09/M07 A3035 RMK A01 T00891066  RH  033%=      5-min Rain = 0
KCR1 092200Z 33003KT 09/M06 A3035 RMK A01 T00891055  RH  036%=      5-min Rain = 0
KCR1 092201Z 31005KT 09/M06 A3035 RMK A01 T00901057  RH  035%=      5-min Rain = 0
KCR1 092202Z 32005KT 09/M06 A3035 RMK A01 T00911064  RH  033%=      5-min Rain = 0
KCR1 092203Z 32004KT 09/M07 A3035 RMK A01 T00911070  RH  031%=      5-min Rain = 0
KCR1 092204Z 33003KT 09/M07 A3035 RMK A01 T00911070  RH  032%=      5-min Rain = 0
KCR1 092205Z 33004KT 09/M07 A3035 RMK A01 T00911065  RH  033%=      5-min Rain = 0
KCR1 092206Z 31004KT 09/M06 A3035 RMK A01 T00901059  RH  034%=      5-min Rain = 0
KCR1 092207Z 32004KT 09/M06 A3035 RMK A01 T00911058  RH  034%=      5-min Rain = 0
KCR1 092208Z 31004KT 09/M06 A3035 RMK A01 T00921057  RH  035%=      5-min Rain = 0
KCR1 092209Z 31004KT 09/M07 A3035 RMK A01 T00921067  RH  032%=      5-min Rain = 0
KCR1 092210Z 32003KT 09/M07 A3035 RMK A01 T00911071  RH  031%=      5-min Rain = 0
KCR1 092211Z 32003KT 09/M06 A3035 RMK A01 T00901062  RH  033%=      5-min Rain = 0
KCR1 092212Z 33003KT 09/M06 A3035 RMK A01 T00911063  RH  033%=      5-min Rain = 0
KCR1 092213Z 33003KT 09/M06 A3035 RMK A01 T00911060  RH  034%=      5-min Rain = 0
KCR1 092214Z 32002KT 09/M07 A3035 RMK A01 T00911068  RH  032%=      5-min Rain = 0
KCR1 092215Z 32003KT 09/M07 A3035 RMK A01 T00901068  RH  032%=      5-min Rain = 0
KCR1 092216Z 31005KT 09/M07 A3035 RMK A01 T00911066  RH  033%=      5-min Rain = 0
KCR1 092217Z 31005KT 09/M07 A3035 RMK A01 T00901068  RH  032%=      5-min Rain = 0
KCR1 092218Z 31004KT 09/M07 A3035 RMK A01 T00901074  RH  031%=      5-min Rain = 0
KCR1 092219Z 30005KT 09/M07 A3035 RMK A01 T00901070  RH  032%=      5-min Rain = 0
KCR1 092220Z 30005KT 09/M07 A3035 RMK A01 T00901072  RH  031%=      5-min Rain = 0
KCR1 092221Z 30004KT 09/M07 A3035 RMK A01 T00901074  RH  031%=      5-min Rain = 0
KCR1 092222Z 30002KT 09/M08 A3035 RMK A01 T00891075  RH  031%=      5-min Rain = 0
KCR1 092223Z 29003KT 09/M07 A3035 RMK A01 T00891071  RH  031%=      5-min Rain = 0
KCR1 092224Z 29002KT 09/M07 A3035 RMK A01 T00901074  RH  031%=      5-min Rain = 0
KCR1 092225Z 28003KT 09/M07 A3035 RMK A01 T00901068  RH  032%=      5-min Rain = 0
KCR1 092226Z 31004KT 09/M06 A3035 RMK A01 T00911064  RH  033%=      5-min Rain = 0
KCR1 092227Z 29005KT 09/M06 A3035 RMK A01 T00911063  RH  033%=      5-min Rain = 0
KCR1 092228Z 29004KT 09/M07 A3035 RMK A01 T00911067  RH  032%=      5-min Rain = 0
KCR1 092229Z 30003KT 09/M07 A3035 RMK A01 T00911068  RH  032%=      5-min Rain = 0
KCR1 092230Z 31003KT 09/M07 A3035 RMK A01 T00911073  RH  031%=      5-min Rain = 0
KCR1 092231Z 32002KT 09/M07 A3035 RMK A01 T00901070  RH  032%=      5-min Rain = 0
KCR1 092232Z 31003KT 09/M06 A3035 RMK A01 T00901062  RH  033%=      5-min Rain = 0
KCR1 092233Z 29003KT 09/M06 A3035 RMK A01 T00901063  RH  033%=      5-min Rain = 0
KCR1 092234Z 29004KT 09/M06 A3035 RMK A01 T00901062  RH  034%=      5-min Rain = 0
KCR1 092235Z 29003KT 09/M07 A3035 RMK A01 T00911066  RH  032%=      5-min Rain = 0
KCR1 092236Z 30003KT 09/M07 A3035 RMK A01 T00911069  RH  032%=      5-min Rain = 0
KCR1 092237Z 31003KT 09/M07 A3035 RMK A01 T00911065  RH  033%=      5-min Rain = 0
KCR1 092238Z 30004KT 09/M07 A3035 RMK A01 T00901067  RH  032%=      5-min Rain = 0
KCR1 092239Z 29004KT 09/M07 A3035 RMK A01 T00891067  RH  032%=      5-min Rain = 0
KCR1 092240Z 29004KT 09/M07 A3035 RMK A01 T00901067  RH  032%=      5-min Rain = 0
KCR1 092241Z 30004KT 09/M07 A3035 RMK A01 T00901065  RH  033%=      5-min Rain = 0
KCR1 092242Z 30004KT 09/M07 A3035 RMK A01 T00891066  RH  033%=      5-min Rain = 0
KCR1 092243Z 31003KT 09/M07 A3035 RMK A01 T00881071  RH  032%=      5-min Rain = 0
KCR1 092244Z 31004KT 09/M07 A3035 RMK A01 T00881071  RH  032%=      5-min Rain = 0
KCR1 092245Z 30003KT 09/M07 A3035 RMK A01 T00881069  RH  032%=      5-min Rain = 0
KCR1 092246Z 30003KT 09/M07 A3035 RMK A01 T00881069  RH  032%=      5-min Rain = 0
KCR1 092247Z 31003KT 09/M07 A3035 RMK A01 T00881072  RH  032%=      5-min Rain = 0
KCR1 092248Z 31003KT 09/M07 A3035 RMK A01 T00881069  RH  032%=      5-min Rain = 0
KCR1 092249Z 29003KT 09/M07 A3035 RMK A01 T00881070  RH  032%=      5-min Rain = 0
KCR1 092250Z 27003KT 09/M07 A3035 RMK A01 T00871070  RH  032%=      5-min Rain = 0
KCR1 092251Z 28004KT 09/M07 A3035 RMK A01 T00871068  RH  033%=      5-min Rain = 0
KCR1 092252Z 28003KT 09/M07 A3035 RMK A01 T00871070  RH  032%=      5-min Rain = 0
KCR1 092253Z 29002KT 09/M07 A3035 RMK A01 T00871066  RH  033%=      5-min Rain = 0
KCR1 092254Z 28004KT 09/M07 A3035 RMK A01 T00871065  RH  034%=      5-min Rain = 0
KCR1 092255Z 28004KT 09/M07 A3035 RMK A01 T00871065  RH  034%=      5-min Rain = 0
KCR1 092256Z 29003KT 09/M07 A3035 RMK A01 T00861065  RH  034%=      5-min Rain = 0
KCR1 092257Z 29002KT 09/M07 A3035 RMK A01 T00861065  RH  034%=      5-min Rain = 0
KCR1 092258Z 29002KT 09/M06 A3035 RMK A01 T00861063  RH  034%=      5-min Rain = 0
KCR1 092259Z 29002KT 09/M06 A3035 RMK A01 T00851062  RH  035%=      5-min Rain = 0
KCR1 092300Z 29002KT 09/M06 A3035 RMK A01 T00851062  RH  035%=      5-min Rain = 0
KCR1 092301Z 29003KT 09/M06 A3035 RMK A01 T00851061  RH  035%=      5-min Rain = 0
KCR1 092302Z 28005KT 08/M06 A3035 RMK A01 T00841062  RH  035%=      5-min Rain = 0
KCR1 092303Z 29005KT 08/M06 A3035 RMK A01 T00841063  RH  035%=      5-min Rain = 0
KCR1 092304Z 29005KT 08/M06 A3035 RMK A01 T00831063  RH  035%=      5-min Rain = 0
KCR1 092305Z 29005KT 08/M06 A3035 RMK A01 T00831061  RH  035%=      5-min Rain = 0
KCR1 092306Z 30004KT 08/M06 A3035 RMK A01 T00831059  RH  036%=      5-min Rain = 0
KCR1 092307Z 30004KT 08/M06 A3035 RMK A01 T00831057  RH  037%=      5-min Rain = 0
KCR1 092308Z 30004KT 08/M06 A3035 RMK A01 T00821059  RH  036%=      5-min Rain = 0
KCR1 092309Z 30004KT 08/M06 A3035 RMK A01 T00821059  RH  036%=      5-min Rain = 0
KCR1 092310Z 29003KT 08/M06 A3035 RMK A01 T00811060  RH  036%=      5-min Rain = 0
KCR1 092311Z 29003KT 08/M06 A3035 RMK A01 T00811061  RH  036%=      5-min Rain = 0
KCR1 092312Z 29003KT 08/M06 A3035 RMK A01 T00801062  RH  036%=      5-min Rain = 0
KCR1 092313Z 29003KT 08/M06 A3035 RMK A01 T00801062  RH  036%=      5-min Rain = 0
KCR1 092314Z 29003KT 08/M06 A3035 RMK A01 T00811063  RH  036%=      5-min Rain = 0
KCR1 092315Z 30003KT 08/M06 A3035 RMK A01 T00811063  RH  036%=      5-min Rain = 0
KCR1 092316Z 30003KT 08/M06 A3035 RMK A01 T00801063  RH  036%=      5-min Rain = 0
KCR1 092317Z 30003KT 08/M06 A3035 RMK A01 T00801063  RH  036%=      5-min Rain = 0
KCR1 092318Z 30003KT 08/M06 A3035 RMK A01 T00801063  RH  036%=      5-min Rain = 0
KCR1 092319Z 30002KT 08/M06 A3034 RMK A01 T00801063  RH  036%=      5-min Rain = 0
KCR1 092320Z 31002KT 08/M06 A3034 RMK A01 T00801063  RH  036%=      5-min Rain = 0
KCR1 092321Z 31002KT 08/M06 A3034 RMK A01 T00801062  RH  036%=      5-min Rain = 0
KCR1 092322Z 31003KT 08/M06 A3034 RMK A01 T00801062  RH  036%=      5-min Rain = 0
KCR1 092323Z 31003KT 08/M06 A3034 RMK A01 T00791061  RH  036%=      5-min Rain = 0
KCR1 092324Z 31003KT 08/M06 A3034 RMK A01 T00791063  RH  036%=      5-min Rain = 0
KCR1 092325Z 31003KT 08/M06 A3034 RMK A01 T00791062  RH  036%=      5-min Rain = 0
KCR1 092326Z 31003KT 08/M06 A3034 RMK A01 T00781061  RH  037%=      5-min Rain = 0
KCR1 092327Z 31003KT 08/M06 A3034 RMK A01 T00771059  RH  037%=      5-min Rain = 0
KCR1 092328Z 32003KT 08/M06 A3035 RMK A01 T00761058  RH  038%=      5-min Rain = 0
KCR1 092329Z 32003KT 08/M06 A3035 RMK A01 T00751059  RH  038%=      5-min Rain = 0
KCR1 092330Z 32003KT 08/M06 A3035 RMK A01 T00751060  RH  038%=      5-min Rain = 0
KCR1 092331Z 31004KT 07/M06 A3035 RMK A01 T00741058  RH  038%=      5-min Rain = 0
KCR1 092332Z 31003KT 07/M06 A3035 RMK A01 T00741060  RH  038%=      5-min Rain = 0
KCR1 092333Z 31003KT 07/M06 A3034 RMK A01 T00741061  RH  038%=      5-min Rain = 0
KCR1 092334Z 32003KT 07/M06 A3034 RMK A01 T00741060  RH  038%=      5-min Rain = 0
KCR1 092335Z 32003KT 07/M06 A3034 RMK A01 T00741062  RH  037%=      5-min Rain = 0
KCR1 092336Z 31003KT 07/M06 A3034 RMK A01 T00741062  RH  038%=      5-min Rain = 0
KCR1 092337Z 32003KT 07/M06 A3034 RMK A01 T00731062  RH  038%=      5-min Rain = 0
KCR1 092338Z 32003KT 07/M06 A3034 RMK A01 T00731063  RH  037%=      5-min Rain = 0
KCR1 092339Z 32003KT 07/M06 A3034 RMK A01 T00731062  RH  038%=      5-min Rain = 0
KCR1 092340Z 32003KT 07/M06 A3035 RMK A01 T00731063  RH  037%=      5-min Rain = 0
KCR1 092341Z 32003KT 07/M06 A3035 RMK A01 T00731063  RH  037%=      5-min Rain = 0
KCR1 092342Z 32003KT 07/M06 A3035 RMK A01 T00731062  RH  038%=      5-min Rain = 0
KCR1 092343Z 31003KT 07/M06 A3035 RMK A01 T00721063  RH  038%=      5-min Rain = 0
KCR1 092344Z 31003KT 07/M06 A3035 RMK A01 T00721062  RH  038%=      5-min Rain = 0
KCR1 092345Z 31003KT 07/M06 A3035 RMK A01 T00711063  RH  038%=      5-min Rain = 0
KCR1 092346Z 31004KT 07/M06 A3035 RMK A01 T00711064  RH  038%=      5-min Rain = 0
KCR1 092347Z 32004KT 07/M06 A3035 RMK A01 T00701064  RH  038%=      5-min Rain = 0
KCR1 092348Z 31004KT 07/M06 A3035 RMK A01 T00711064  RH  038%=      5-min Rain = 0
KCR1 092349Z 31004KT 07/M06 A3035 RMK A01 T00711064  RH  038%=      5-min Rain = 0
KCR1 092350Z 31003KT 07/M06 A3035 RMK A01 T00701063  RH  038%=      5-min Rain = 0
KCR1 092351Z 31003KT 07/M06 A3035 RMK A01 T00701063  RH  038%=      5-min Rain = 0
KCR1 092352Z 31003KT 07/M06 A3035 RMK A01 T00701063  RH  038%=      5-min Rain = 0
KCR1 092353Z 32003KT 07/M06 A3035 RMK A01 T00691063  RH  038%=      5-min Rain = 0
KCR1 092354Z 32003KT 07/M06 A3035 RMK A01 T00691064  RH  038%=      5-min Rain = 0
KCR1 092355Z 32003KT 07/M06 A3035 RMK A01 T00681064  RH  038%=      5-min Rain = 0
KCR1 092356Z 32003KT 07/M06 A3035 RMK A01 T00691064  RH  038%=      5-min Rain = 0
KCR1 092357Z 32003KT 07/M06 A3035 RMK A01 T00691064  RH  038%=      5-min Rain = 0
KCR1 092358Z 32003KT 07/M06 A3035 RMK A01 T00681064  RH  038%=      5-min Rain = 0
KCR1 092359Z 31003KT 07/M06 A3035 RMK A01 T00671064  RH  039%=      5-min Rain = 0
KCR1 100000Z 31003KT 07/M06 A3035 RMK A01 T00661063  RH  039%=      5-min Rain = 0
KCR1 100001Z 31003KT 07/M06 A3035 RMK A01 T00651063  RH  039%=      5-min Rain = 0
KCR1 100002Z 31003KT 06/M06 A3035 RMK A01 T00641062  RH  040%=      5-min Rain = 0
KCR1 100003Z 31003KT 06/M06 A3035 RMK A01 T00641062  RH  040%=      5-min Rain = 0
KCR1 100004Z 30003KT 06/M06 A3035 RMK A01 T00641062  RH  040%=      5-min Rain = 0
KCR1 100005Z 30003KT 06/M06 A3035 RMK A01 T00641062  RH  040%=      5-min Rain = 0
KCR1 100006Z 30003KT 06/M06 A3035 RMK A01 T00641061  RH  040%=      5-min Rain = 0
KCR1 100007Z 30003KT 06/M06 A3035 RMK A01 T00641061  RH  040%=      5-min Rain = 0
KCR1 100008Z 31003KT 06/M06 A3035 RMK A01 T00641060  RH  040%=      5-min Rain = 0
KCR1 100009Z 31003KT 06/M06 A3035 RMK A01 T00641059  RH  041%=      5-min Rain = 0
KCR1 100010Z 32003KT 06/M06 A3036 RMK A01 T00641058  RH  041%=      5-min Rain = 0
KCR1 100011Z 32003KT 06/M06 A3036 RMK A01 T00641059  RH  041%=      5-min Rain = 0
KCR1 100012Z 32003KT 06/M06 A3036 RMK A01 T00631059  RH  041%=      5-min Rain = 0
KCR1 100013Z 32003KT 06/M06 A3036 RMK A01 T00631060  RH  041%=      5-min Rain = 0
KCR1 100014Z 32003KT 06/M06 A3036 RMK A01 T00631061  RH  041%=      5-min Rain = 0
KCR1 100015Z 32003KT 06/M06 A3036 RMK A01 T00631061  RH  041%=      5-min Rain = 0
KCR1 100016Z 32003KT 06/M06 A3036 RMK A01 T00621061  RH  041%=      5-min Rain = 0
KCR1 100017Z 32003KT 06/M06 A3036 RMK A01 T00621062  RH  041%=      5-min Rain = 0
KCR1 100018Z 33003KT 06/M06 A3036 RMK A01 T00611062  RH  041%=      5-min Rain = 0
KCR1 100019Z 33004KT 06/M06 A3036 RMK A01 T00611060  RH  041%=      5-min Rain = 0
KCR1 100020Z 33004KT 06/M06 A3036 RMK A01 T00611062  RH  041%=      5-min Rain = 0
KCR1 100021Z 33004KT 06/M06 A3036 RMK A01 T00601061  RH  042%=      5-min Rain = 0
KCR1 100022Z 33004KT 06/M06 A3036 RMK A01 T00591059  RH  042%=      5-min Rain = 0
KCR1 100023Z 33004KT 06/M06 A3036 RMK A01 T00581057  RH  043%=      5-min Rain = 0
KCR1 100024Z 33004KT 06/M06 A3036 RMK A01 T00581058  RH  043%=      5-min Rain = 0
KCR1 100025Z 33004KT 06/M06 A3036 RMK A01 T00581058  RH  043%=      5-min Rain = 0
KCR1 100026Z 33004KT 06/M06 A3036 RMK A01 T00591059  RH  043%=      5-min Rain = 0
KCR1 100027Z 33004KT 06/M06 A3036 RMK A01 T00581061  RH  042%=      5-min Rain = 0
KCR1 100028Z 33004KT 06/M06 A3036 RMK A01 T00581061  RH  042%=      5-min Rain = 0
KCR1 100029Z 33004KT 06/M06 A3036 RMK A01 T00591064  RH  041%=      5-min Rain = 0
KCR1 100030Z 32004KT 06/M06 A3036 RMK A01 T00601064  RH  041%=      5-min Rain = 0
KCR1 100031Z 33004KT 06/M07 A3036 RMK A01 T00601065  RH  040%=      5-min Rain = 0
KCR1 100032Z 33003KT 06/M07 A3036 RMK A01 T00601065  RH  040%=      5-min Rain = 0
KCR1 100033Z 33003KT 06/M07 A3036 RMK A01 T00611065  RH  040%=      5-min Rain = 0
KCR1 100034Z 33003KT 06/M07 A3036 RMK A01 T00611067  RH  039%=      5-min Rain = 0
KCR1 100035Z 33003KT 06/M07 A3036 RMK A01 T00611069  RH  039%=      5-min Rain = 0
KCR1 100036Z 33003KT 06/M07 A3036 RMK A01 T00611070  RH  038%=      5-min Rain = 0
KCR1 100037Z 33003KT 06/M07 A3036 RMK A01 T00621070  RH  038%=      5-min Rain = 0
KCR1 100038Z 33003KT 06/M07 A3036 RMK A01 T00621069  RH  039%=      5-min Rain = 0
KCR1 100039Z 32003KT 06/M07 A3036 RMK A01 T00621068  RH  039%=      5-min Rain = 0
KCR1 100040Z 32003KT 06/M07 A3036 RMK A01 T00611068  RH  039%=      5-min Rain = 0
KCR1 100041Z 32003KT 06/M07 A3037 RMK A01 T00601067  RH  040%=      5-min Rain = 0
KCR1 100042Z 32003KT 06/M07 A3037 RMK A01 T00591067  RH  040%=      5-min Rain = 0
KCR1 100043Z 32003KT 06/M07 A3037 RMK A01 T00581068  RH  040%=      5-min Rain = 0
KCR1 100044Z 31003KT 06/M07 A3037 RMK A01 T00581068  RH  040%=      5-min Rain = 0
KCR1 100045Z 31004KT 06/M07 A3037 RMK A01 T00581066  RH  041%=      5-min Rain = 0
KCR1 100046Z 29003KT 06/M06 A3037 RMK A01 T00571062  RH  042%=      5-min Rain = 0
KCR1 100047Z 29004KT 05/M06 A3037 RMK A01 T00541062  RH  043%=      5-min Rain = 0
KCR1 100048Z 30003KT 05/M06 A3037 RMK A01 T00541061  RH  043%=      5-min Rain = 0
KCR1 100049Z 29004KT 05/M06 A3037 RMK A01 T00531056  RH  045%=      5-min Rain = 0
KCR1 100050Z 29004KT 05/M05 A3037 RMK A01 T00491053  RH  048%=      5-min Rain = 0
KCR1 100051Z 29004KT 05/M06 A3037 RMK A01 T00481056  RH  047%=      5-min Rain = 0
KCR1 100052Z 29004KT 05/M05 A3037 RMK A01 T00491054  RH  047%=      5-min Rain = 0
KCR1 100053Z 29005KT 05/M05 A3037 RMK A01 T00481053  RH  048%=      5-min Rain = 0
KCR1 100054Z 29004KT 05/M05 A3037 RMK A01 T00481054  RH  048%=      5-min Rain = 0
KCR1 100055Z 29005KT 05/M06 A3037 RMK A01 T00481055  RH  047%=      5-min Rain = 0
KCR1 100056Z 29005KT 05/M06 A3037 RMK A01 T00481056  RH  047%=      5-min Rain = 0
KCR1 100057Z 29005KT 05/M06 A3037 RMK A01 T00471056  RH  047%=      5-min Rain = 0
KCR1 100058Z 29004KT 05/M06 A3037 RMK A01 T00471055  RH  048%=      5-min Rain = 0
KCR1 100059Z 29005KT 05/M05 A3037 RMK A01 T00471054  RH  048%=      5-min Rain = 0
KCR1 100100Z 30004KT 05/M05 A3037 RMK A01 T00471053  RH  048%=      5-min Rain = 0
KCR1 100101Z 30004KT 05/M05 A3037 RMK A01 T00461053  RH  049%=      5-min Rain = 0
KCR1 100102Z 30004KT 05/M05 A3037 RMK A01 T00471054  RH  048%=      5-min Rain = 0
KCR1 100103Z 29004KT 05/M06 A3037 RMK A01 T00471055  RH  047%=      5-min Rain = 0
KCR1 100104Z 29004KT 05/M06 A3037 RMK A01 T00471055  RH  047%=      5-min Rain = 0
KCR1 100105Z 29004KT 05/M06 A3037 RMK A01 T00461055  RH  048%=      5-min Rain = 0
KCR1 100106Z 29004KT 05/M06 A3037 RMK A01 T00461057  RH  047%=      5-min Rain = 0
KCR1 100107Z 28004KT 05/M06 A3037 RMK A01 T00461058  RH  047%=      5-min Rain = 0
KCR1 100108Z 28004KT 05/M06 A3037 RMK A01 T00461058  RH  047%=      5-min Rain = 0
KCR1 100109Z 28004KT 05/M06 A3037 RMK A01 T00461058  RH  047%=      5-min Rain = 0
KCR1 100110Z 28004KT 05/M06 A3037 RMK A01 T00451058  RH  047%=      5-min Rain = 0
KCR1 100111Z 27004KT 05/M06 A3037 RMK A01 T00451058  RH  047%=      5-min Rain = 0
KCR1 100112Z 27004KT 05/M06 A3037 RMK A01 T00451058  RH  047%=      5-min Rain = 0
KCR1 100113Z 27005KT 05/M06 A3037 RMK A01 T00451057  RH  048%=      5-min Rain = 0
KCR1 100114Z 27004KT 05/M06 A3037 RMK A01 T00451056  RH  048%=      5-min Rain = 0
KCR1 100115Z 28004KT 05/M06 A3037 RMK A01 T00451055  RH  048%=      5-min Rain = 0
KCR1 100116Z 28004KT 04/M05 A3037 RMK A01 T00441054  RH  049%=      5-min Rain = 0
KCR1 100117Z 28004KT 04/M05 A3037 RMK A01 T00441053  RH  050%=      5-min Rain = 0
KCR1 100118Z 28005KT 04/M05 A3037 RMK A01 T00431054  RH  049%=      5-min Rain = 0
KCR1 100119Z 28005KT 04/M05 A3037 RMK A01 T00431054  RH  049%=      5-min Rain = 0
KCR1 100120Z 28005KT 04/M05 A3037 RMK A01 T00431054  RH  049%=      5-min Rain = 0
KCR1 100121Z 28005KT 04/M06 A3037 RMK A01 T00421055  RH  049%=      5-min Rain = 0
KCR1 100122Z 28005KT 04/M06 A3037 RMK A01 T00431057  RH  048%=      5-min Rain = 0
KCR1 100123Z 28005KT 04/M06 A3037 RMK A01 T00431055  RH  049%=      5-min Rain = 0
KCR1 100124Z 29005KT 04/M06 A3037 RMK A01 T00431055  RH  049%=      5-min Rain = 0
KCR1 100125Z 29005KT 04/M06 A3037 RMK A01 T00431055  RH  049%=      5-min Rain = 0
KCR1 100126Z 29005KT 04/M06 A3037 RMK A01 T00431056  RH  048%=      5-min Rain = 0
KCR1 100127Z 28005KT 04/M06 A3037 RMK A01 T00431057  RH  048%=      5-min Rain = 0
KCR1 100128Z 28005KT 04/M06 A3037 RMK A01 T00421059  RH  048%=      5-min Rain = 0
KCR1 100129Z 28005KT 04/M06 A3037 RMK A01 T00421061  RH  047%=      5-min Rain = 0
KCR1 100130Z 28005KT 04/M06 A3037 RMK A01 T00431061  RH  047%=      5-min Rain = 0
KCR1 100131Z 28005KT 04/M06 A3037 RMK A01 T00421060  RH  047%=      5-min Rain = 0
KCR1 100132Z 28006KT 04/M06 A3037 RMK A01 T00421060  RH  047%=      5-min Rain = 0
KCR1 100133Z 28006KT 04/M06 A3037 RMK A01 T00431060  RH  047%=      5-min Rain = 0
KCR1 100134Z 28006KT 04/M06 A3037 RMK A01 T00421062  RH  047%=      5-min Rain = 0
KCR1 100135Z 28006KT 04/M06 A3037 RMK A01 T00431063  RH  046%=      5-min Rain = 0
KCR1 100136Z 28005KT 04/M06 A3037 RMK A01 T00441064  RH  045%=      5-min Rain = 0
KCR1 100137Z 27005KT 05/M07 A3037 RMK A01 T00451065  RH  045%=      5-min Rain = 0
KCR1 100138Z 27006KT 05/M07 A3037 RMK A01 T00461065  RH  044%=      5-min Rain = 0
KCR1 100139Z 27006KT 05/M07 A3037 RMK A01 T00451066  RH  044%=      5-min Rain = 0
KCR1 100140Z 27005KT 05/M07 A3037 RMK A01 T00451066  RH  044%=      5-min Rain = 0
KCR1 100141Z 27005KT 05/M07 A3037 RMK A01 T00451065  RH  045%=      5-min Rain = 0
KCR1 100142Z 27005KT 04/M07 A3037 RMK A01 T00441065  RH  045%=      5-min Rain = 0
KCR1 100143Z 26005KT 04/M06 A3037 RMK A01 T00431063  RH  046%=      5-min Rain = 0
KCR1 100144Z 26005KT 04/M06 A3037 RMK A01 T00421062  RH  047%=      5-min Rain = 0
KCR1 100145Z 23006KT 04/M06 A3037 RMK A01 T00401059  RH  048%=      5-min Rain = 0
KCR1 100146Z 23007KT 03/M05 A3037 RMK A01 T00321049  RH  055%=      5-min Rain = 0
KCR1 100147Z 25007KT 03/M05 A3037 RMK A01 T00271048  RH  058%=      5-min Rain = 0
KCR1 100148Z 25007KT 03/M05 A3037 RMK A01 T00261049  RH  058%=      5-min Rain = 0
KCR1 100149Z 26007KT 03/M05 A3037 RMK A01 T00251049  RH  058%=      5-min Rain = 0
KCR1 100150Z 26006KT 03/M05 A3037 RMK A01 T00261051  RH  057%=      5-min Rain = 0
KCR1 100151Z 26006KT 03/M05 A3037 RMK A01 T00261051  RH  057%=      5-min Rain = 0
KCR1 100152Z 26006KT 03/M05 A3037 RMK A01 T00261052  RH  056%=      5-min Rain = 0
KCR1 100153Z 27006KT 03/M05 A3037 RMK A01 T00271052  RH  056%=      5-min Rain = 0
KCR1 100154Z 27005KT 03/M05 A3037 RMK A01 T00271051  RH  057%=      5-min Rain = 0
KCR1 100155Z 27006KT 03/M05 A3037 RMK A01 T00271050  RH  057%=      5-min Rain = 0
KCR1 100156Z 27006KT 03/M05 A3037 RMK A01 T00271051  RH  056%=      5-min Rain = 0
KCR1 100157Z 27006KT 03/M05 A3037 RMK A01 T00281052  RH  056%=      5-min Rain = 0
KCR1 100158Z 27006KT 03/M05 A3037 RMK A01 T00281051  RH  056%=      5-min Rain = 0
KCR1 100159Z 27006KT 03/M05 A3037 RMK A01 T00281050  RH  057%=      5-min Rain = 0
KCR1 100200Z 27006KT 03/M05 A3037 RMK A01 T00281049  RH  057%=      5-min Rain = 0
KCR1 100201Z 28006KT 03/M05 A3037 RMK A01 T00301047  RH  057%=      5-min Rain = 0
KCR1 100202Z 28006KT 03/M05 A3037 RMK A01 T00311045  RH  057%=      5-min Rain = 0
KCR1 100203Z 28007KT 03/M04 A3037 RMK A01 T00321044  RH  058%=      5-min Rain = 0
KCR1 100204Z 28007KT 03/M04 A3037 RMK A01 T00321042  RH  058%=      5-min Rain = 0
KCR1 100205Z 28006KT 03/M04 A3037 RMK A01 T00321042  RH  058%=      5-min Rain = 0
KCR1 100206Z 28007KT 03/M04 A3037 RMK A01 T00321042  RH  058%=      5-min Rain = 0
KCR1 100207Z 28007KT 03/M04 A3037 RMK A01 T00331042  RH  058%=      5-min Rain = 0
KCR1 100208Z 29007KT 03/M04 A3037 RMK A01 T00331041  RH  058%=      5-min Rain = 0
KCR1 100209Z 28008KT 03/M04 A3037 RMK A01 T00341040  RH  058%=      5-min Rain = 0
KCR1 100210Z 28008KT 03/M04 A3037 RMK A01 T00341040  RH  058%=      5-min Rain = 0
KCR1 100211Z 28007KT 04/M04 A3037 RMK A01 T00351039  RH  058%=      5-min Rain = 0
KCR1 100212Z 28007KT 04/M04 A3037 RMK A01 T00351039  RH  058%=      5-min Rain = 0
KCR1 100213Z 28007KT 04/M04 A3037 RMK A01 T00351039  RH  058%=      5-min Rain = 0
KCR1 100214Z 28007KT 04/M04 A3037 RMK A01 T00351038  RH  059%=      5-min Rain = 0
KCR1 100215Z 28007KT 03/M04 A3037 RMK A01 T00341038  RH  059%=      5-min Rain = 0
KCR1 100216Z 28006KT 03/M04 A3037 RMK A01 T00341038  RH  059%=      5-min Rain = 0
KCR1 100217Z 28007KT 03/M04 A3037 RMK A01 T00331039  RH  059%=      5-min Rain = 0
KCR1 100218Z 28006KT 03/M04 A3037 RMK A01 T00331039  RH  059%=      5-min Rain = 0
KCR1 100219Z 28007KT 03/M04 A3038 RMK A01 T00331039  RH  059%=      5-min Rain = 0
KCR1 100220Z 28007KT 03/M04 A3038 RMK A01 T00331038  RH  059%=      5-min Rain = 0
KCR1 100221Z 28007KT 03/M04 A3038 RMK A01 T00331038  RH  059%=      5-min Rain = 0
KCR1 100222Z 27007KT 03/M04 A3038 RMK A01 T00331038  RH  060%=      5-min Rain = 0
KCR1 100223Z 28006KT 03/M04 A3038 RMK A01 T00321038  RH  060%=      5-min Rain = 0
KCR1 100224Z 27006KT 03/M04 A3037 RMK A01 T00311038  RH  061%=      5-min Rain = 0
KCR1 100225Z 28006KT 03/M04 A3037 RMK A01 T00311038  RH  060%=      5-min Rain = 0
KCR1 100226Z 28006KT 03/M04 A3037 RMK A01 T00311038  RH  060%=      5-min Rain = 0
KCR1 100227Z 27007KT 03/M04 A3037 RMK A01 T00321039  RH  060%=      5-min Rain = 0
KCR1 100228Z 27005KT 03/M04 A3037 RMK A01 T00331039  RH  059%=      5-min Rain = 0
KCR1 100229Z 27005KT 03/M04 A3037 RMK A01 T00331039  RH  059%=      5-min Rain = 0
KCR1 100230Z 27005KT 03/M04 A3037 RMK A01 T00321039  RH  059%=      5-min Rain = 0
KCR1 100231Z 27006KT 03/M04 A3037 RMK A01 T00311040  RH  060%=      5-min Rain = 0
KCR1 100232Z 27006KT 03/M04 A3037 RMK A01 T00311040  RH  059%=      5-min Rain = 0
KCR1 100233Z 27006KT 03/M04 A3037 RMK A01 T00321039  RH  060%=      5-min Rain = 0
KCR1 100234Z 27006KT 03/M04 A3037 RMK A01 T00311039  RH  060%=      5-min Rain = 0
KCR1 100235Z 28006KT 03/M04 A3037 RMK A01 T00311038  RH  060%=      5-min Rain = 0
KCR1 100236Z 27006KT 03/M04 A3037 RMK A01 T00311038  RH  060%=      5-min Rain = 0
KCR1 100237Z 27005KT 03/M04 A3037 RMK A01 T00301038  RH  061%=      5-min Rain = 0
KCR1 100238Z 27007KT 03/M04 A3037 RMK A01 T00291038  RH  061%=      5-min Rain = 0
KCR1 100239Z 27006KT 03/M04 A3037 RMK A01 T00301038  RH  061%=      5-min Rain = 0
KCR1 100240Z 27006KT 03/M04 A3037 RMK A01 T00301037  RH  061%=      5-min Rain = 0
KCR1 100241Z 27007KT 03/M04 A3037 RMK A01 T00301038  RH  061%=      5-min Rain = 0
KCR1 100242Z 27006KT 03/M04 A3037 RMK A01 T00301038  RH  061%=      5-min Rain = 0
KCR1 100243Z 27006KT 03/M04 A3037 RMK A01 T00301037  RH  061%=      5-min Rain = 0
KCR1 100244Z 27006KT 03/M04 A3037 RMK A01 T00301037  RH  061%=      5-min Rain = 0
KCR1 100245Z 27006KT 03/M04 A3037 RMK A01 T00301037  RH  061%=      5-min Rain = 0
KCR1 100246Z 27006KT 03/M04 A3037 RMK A01 T00301037  RH  061%=      5-min Rain = 0
KCR1 100247Z 27007KT 03/M04 A3037 RMK A01 T00301036  RH  062%=      5-min Rain = 0
KCR1 100248Z 27007KT 03/M04 A3037 RMK A01 T00301036  RH  062%=      5-min Rain = 0
KCR1 100249Z 28006KT 03/M04 A3037 RMK A01 T00301036  RH  062%=      5-min Rain = 0
KCR1 100250Z 28006KT 03/M04 A3037 RMK A01 T00291036  RH  062%=      5-min Rain = 0
KCR1 100251Z 28006KT 03/M04 A3037 RMK A01 T00291036  RH  062%=      5-min Rain = 0
KCR1 100252Z 28006KT 03/M04 A3037 RMK A01 T00291036  RH  062%=      5-min Rain = 0
KCR1 100253Z 27006KT 03/M04 A3037 RMK A01 T00291035  RH  063%=      5-min Rain = 0
KCR1 100254Z 27007KT 03/M04 A3037 RMK A01 T00291036  RH  063%=      5-min Rain = 0
KCR1 100255Z 27006KT 03/M04 A3037 RMK A01 T00291036  RH  063%=      5-min Rain = 0
KCR1 100256Z 27006KT 03/M04 A3037 RMK A01 T00291035  RH  063%=      5-min Rain = 0
KCR1 100257Z 27006KT 03/M04 A3037 RMK A01 T00281035  RH  063%=      5-min Rain = 0
KCR1 100258Z 27005KT 03/M04 A3037 RMK A01 T00281035  RH  063%=      5-min Rain = 0
KCR1 100259Z 27006KT 03/M03 A3037 RMK A01 T00271034  RH  064%=      5-min Rain = 0
KCR1 100300Z 26006KT 03/M03 A3037 RMK A01 T00261034  RH  065%=      5-min Rain = 0
KCR1 100301Z 26006KT 03/M03 A3037 RMK A01 T00261033  RH  065%=      5-min Rain = 0
KCR1 100302Z 27006KT 03/M03 A3037 RMK A01 T00251033  RH  066%=      5-min Rain = 0
KCR1 100303Z 26006KT 03/M03 A3036 RMK A01 T00251033  RH  066%=      5-min Rain = 0
KCR1 100304Z 26006KT 02/M03 A3036 RMK A01 T00241033  RH  066%=      5-min Rain = 0
KCR1 100305Z 26006KT 02/M03 A3036 RMK A01 T00241032  RH  066%=      5-min Rain = 0
KCR1 100306Z 26006KT 02/M03 A3036 RMK A01 T00241032  RH  066%=      5-min Rain = 0
KCR1 100307Z 27006KT 02/M03 A3036 RMK A01 T00231032  RH  067%=      5-min Rain = 0
KCR1 100308Z 27006KT 02/M03 A3037 RMK A01 T00221032  RH  067%=      5-min Rain = 0
KCR1 100309Z 27006KT 02/M03 A3037 RMK A01 T00211032  RH  068%=      5-min Rain = 0
KCR1 100310Z 27006KT 02/M03 A3037 RMK A01 T00211032  RH  068%=      5-min Rain = 0
KCR1 100311Z 27007KT 02/M03 A3037 RMK A01 T00211031  RH  068%=      5-min Rain = 0
KCR1 100312Z 27006KT 02/M03 A3037 RMK A01 T00201031  RH  069%=      5-min Rain = 0
KCR1 100313Z 27006KT 02/M03 A3037 RMK A01 T00201031  RH  069%=      5-min Rain = 0
KCR1 100314Z 28006KT 02/M03 A3037 RMK A01 T00201031  RH  069%=      5-min Rain = 0
KCR1 100315Z 28006KT 02/M03 A3037 RMK A01 T00201031  RH  069%=      5-min Rain = 0
KCR1 100316Z 28006KT 02/M03 A3037 RMK A01 T00201031  RH  069%=      5-min Rain = 0
KCR1 100317Z 28006KT 02/M03 A3037 RMK A01 T00201031  RH  069%=      5-min Rain = 0
KCR1 100318Z 28007KT 02/M03 A3037 RMK A01 T00201031  RH  069%=      5-min Rain = 0
KCR1 100319Z 28007KT 02/M03 A3037 RMK A01 T00211031  RH  068%=      5-min Rain = 0
KCR1 100320Z 28007KT 02/M03 A3037 RMK A01 T00221031  RH  068%=      5-min Rain = 0
KCR1 100321Z 28007KT 02/M03 A3037 RMK A01 T00221032  RH  068%=      5-min Rain = 0
KCR1 100322Z 28007KT 02/M03 A3037 RMK A01 T00221032  RH  068%=      5-min Rain = 0
KCR1 100323Z 28007KT 02/M03 A3037 RMK A01 T00221032  RH  067%=      5-min Rain = 0
KCR1 100324Z 28007KT 02/M03 A3037 RMK A01 T00231032  RH  067%=      5-min Rain = 0
KCR1 100325Z 28007KT 02/M03 A3037 RMK A01 T00231032  RH  067%=      5-min Rain = 0
KCR1 100326Z 28006KT 02/M03 A3037 RMK A01 T00231031  RH  067%=      5-min Rain = 0
KCR1 100327Z 28006KT 02/M03 A3037 RMK A01 T00231031  RH  067%=      5-min Rain = 0
KCR1 100328Z 27007KT 02/M03 A3037 RMK A01 T00231031  RH  067%=      5-min Rain = 0
KCR1 100329Z 27007KT 02/M03 A3037 RMK A01 T00231031  RH  067%=      5-min Rain = 0
KCR1 100330Z 27006KT 02/M03 A3037 RMK A01 T00231032  RH  067%=      5-min Rain = 0
KCR1 100331Z 28007KT 02/M03 A3037 RMK A01 T00231032  RH  067%=      5-min Rain = 0
KCR1 100332Z 28006KT 02/M03 A3037 RMK A01 T00241032  RH  067%=      5-min Rain = 0
KCR1 100333Z 28006KT 02/M03 A3037 RMK A01 T00241032  RH  067%=      5-min Rain = 0
KCR1 100334Z 28006KT 02/M03 A3037 RMK A01 T00241032  RH  067%=      5-min Rain = 0
KCR1 100335Z 28007KT 02/M03 A3037 RMK A01 T00231032  RH  067%=      5-min Rain = 0
KCR1 100336Z 28007KT 02/M03 A3037 RMK A01 T00241032  RH  067%=      5-min Rain = 0
KCR1 100337Z 28008KT 02/M03 A3037 RMK A01 T00241032  RH  066%=      5-min Rain = 0
KCR1 100338Z 28008KT 02/M03 A3037 RMK A01 T00241032  RH  066%=      5-min Rain = 0
KCR1 100339Z 28007KT 03/M03 A3037 RMK A01 T00251032  RH  066%=      5-min Rain = 0
KCR1 100340Z 28007KT 03/M03 A3037 RMK A01 T00261032  RH  066%=      5-min Rain = 0
KCR1 100341Z 28007KT 03/M03 A3037 RMK A01 T00261031  RH  066%=      5-min Rain = 0
KCR1 100342Z 28007KT 03/M03 A3037 RMK A01 T00261031  RH  066%=      5-min Rain = 0
KCR1 100343Z 28007KT 03/M03 A3037 RMK A01 T00251031  RH  067%=      5-min Rain = 0
KCR1 100344Z 29006KT 03/M03 A3037 RMK A01 T00251030  RH  067%=      5-min Rain = 0
KCR1 100345Z 29006KT 02/M03 A3037 RMK A01 T00241031  RH  067%=      5-min Rain = 0
KCR1 100346Z 28006KT 02/M03 A3037 RMK A01 T00241030  RH  068%=      5-min Rain = 0
KCR1 100347Z 28007KT 02/M03 A3037 RMK A01 T00231030  RH  068%=      5-min Rain = 0
KCR1 100348Z 28006KT 02/M03 A3037 RMK A01 T00231030  RH  068%=      5-min Rain = 0
KCR1 100349Z 28006KT 02/M03 A3037 RMK A01 T00231030  RH  068%=      5-min Rain = 0
KCR1 100350Z 28007KT 02/M03 A3037 RMK A01 T00231030  RH  068%=      5-min Rain = 0
KCR1 100351Z 28007KT 02/M03 A3037 RMK A01 T00231030  RH  068%=      5-min Rain = 0
KCR1 100352Z 28006KT 02/M03 A3037 RMK A01 T00231030  RH  068%=      5-min Rain = 0
KCR1 100353Z 28007KT 02/M03 A3037 RMK A01 T00231030  RH  068%=      5-min Rain = 0
KCR1 100354Z 28006KT 02/M03 A3037 RMK A01 T00231030  RH  068%=      5-min Rain = 0
KCR1 100355Z 28007KT 02/M03 A3037 RMK A01 T00231030  RH  068%=      5-min Rain = 0
KCR1 100356Z 28007KT 02/M03 A3037 RMK A01 T00231029  RH  068%=      5-min Rain = 0
KCR1 100357Z 28007KT 02/M03 A3038 RMK A01 T00221029  RH  069%=      5-min Rain = 0
KCR1 100358Z 28006KT 02/M03 A3038 RMK A01 T00221029  RH  069%=      5-min Rain = 0
KCR1 100359Z 28006KT 02/M03 A3038 RMK A01 T00221029  RH  069%=      5-min Rain = 0
KCR1 100400Z 28006KT 02/M03 A3038 RMK A01 T00221028  RH  069%=      5-min Rain = 0
KCR1 100401Z 28006KT 02/M03 A3038 RMK A01 T00211028  RH  070%=      5-min Rain = 0
KCR1 100402Z 28006KT 02/M03 A3038 RMK A01 T00211028  RH  070%=      5-min Rain = 0
KCR1 100403Z 28006KT 02/M03 A3037 RMK A01 T00201028  RH  070%=      5-min Rain = 0
KCR1 100404Z 28007KT 02/M03 A3037 RMK A01 T00201028  RH  070%=      5-min Rain = 0
KCR1 100405Z 27006KT 02/M03 A3037 RMK A01 T00211028  RH  070%=      5-min Rain = 0
KCR1 100406Z 27006KT 02/M03 A3037 RMK A01 T00211028  RH  070%=      5-min Rain = 0
KCR1 100407Z 27007KT 02/M03 A3037 RMK A01 T00211028  RH  070%=      5-min Rain = 0
KCR1 100408Z 27006KT 02/M03 A3037 RMK A01 T00211028  RH  070%=      5-min Rain = 0
KCR1 100409Z 27006KT 02/M03 A3037 RMK A01 T00211027  RH  070%=      5-min Rain = 0
KCR1 100410Z 27006KT 02/M03 A3037 RMK A01 T00201027  RH  071%=      5-min Rain = 0
KCR1 100411Z 27006KT 02/M03 A3037 RMK A01 T00201027  RH  071%=      5-min Rain = 0
KCR1 100412Z 28006KT 02/M03 A3037 RMK A01 T00201027  RH  071%=      5-min Rain = 0
KCR1 100413Z 27006KT 02/M03 A3037 RMK A01 T00191027  RH  071%=      5-min Rain = 0
KCR1 100414Z 27007KT 02/M03 A3037 RMK A01 T00201027  RH  071%=      5-min Rain = 0
KCR1 100415Z 27006KT 02/M03 A3037 RMK A01 T00201027  RH  071%=      5-min Rain = 0
KCR1 100416Z 27006KT 02/M03 A3037 RMK A01 T00211027  RH  071%=      5-min Rain = 0
KCR1 100417Z 27006KT 02/M03 A3037 RMK A01 T00211027  RH  070%=      5-min Rain = 0
KCR1 100418Z 27006KT 02/M03 A3037 RMK A01 T00211027  RH  070%=      5-min Rain = 0
KCR1 100419Z 27007KT 02/M03 A3038 RMK A01 T00211027  RH  070%=      5-min Rain = 0
KCR1 100420Z 27006KT 02/M03 A3038 RMK A01 T00221027  RH  070%=      5-min Rain = 0
KCR1 100421Z 27005KT 02/M03 A3038 RMK A01 T00221027  RH  070%=      5-min Rain = 0
KCR1 100422Z 27006KT 02/M03 A3038 RMK A01 T00231027  RH  070%=      5-min Rain = 0
KCR1 100423Z 27006KT 02/M03 A3038 RMK A01 T00221027  RH  070%=      5-min Rain = 0
KCR1 100424Z 27005KT 02/M03 A3038 RMK A01 T00221026  RH  070%=      5-min Rain = 0
KCR1 100425Z 27005KT 02/M03 A3038 RMK A01 T00211026  RH  071%=      5-min Rain = 0
KCR1 100426Z 27005KT 02/M03 A3037 RMK A01 T00201026  RH  071%=      5-min Rain = 0
KCR1 100427Z 26005KT 02/M03 A3037 RMK A01 T00201026  RH  071%=      5-min Rain = 0
KCR1 100428Z 27005KT 02/M03 A3037 RMK A01 T00201026  RH  071%=      5-min Rain = 0
KCR1 100429Z 26005KT 02/M03 A3037 RMK A01 T00201026  RH  072%=      5-min Rain = 0
KCR1 100430Z 26006KT 02/M03 A3037 RMK A01 T00201026  RH  072%=      5-min Rain = 0
KCR1 100431Z 27006KT 02/M03 A3037 RMK A01 T00201025  RH  072%=      5-min Rain = 0
KCR1 100432Z 26006KT 02/M03 A3037 RMK A01 T00201026  RH  072%=      5-min Rain = 0
KCR1 100433Z 26006KT 02/M03 A3038 RMK A01 T00201025  RH  072%=      5-min Rain = 0
KCR1 100434Z 26006KT 02/M03 A3038 RMK A01 T00201025  RH  072%=      5-min Rain = 0
KCR1 100435Z 26006KT 02/M03 A3038 RMK A01 T00201025  RH  072%=      5-min Rain = 0
KCR1 100436Z 26006KT 02/M03 A3038 RMK A01 T00201025  RH  072%=      5-min Rain = 0
KCR1 100437Z 26006KT 02/M03 A3038 RMK A01 T00201025  RH  072%=      5-min Rain = 0
KCR1 100438Z 26006KT 02/M03 A3038 RMK A01 T00201025  RH  072%=      5-min Rain = 0
KCR1 100439Z 26006KT 02/M03 A3038 RMK A01 T00191025  RH  073%=      5-min Rain = 0
KCR1 100440Z 26006KT 02/M02 A3037 RMK A01 T00201024  RH  073%=      5-min Rain = 0
KCR1 100441Z 26006KT 02/M02 A3037 RMK A01 T00201024  RH  073%=      5-min Rain = 0
KCR1 100442Z 26006KT 02/M02 A3037 RMK A01 T00191024  RH  073%=      5-min Rain = 0
KCR1 100443Z 26007KT 02/M02 A3037 RMK A01 T00181024  RH  073%=      5-min Rain = 0
KCR1 100444Z 26007KT 02/M02 A3037 RMK A01 T00191024  RH  074%=      5-min Rain = 0
KCR1 100445Z 26007KT 02/M02 A3037 RMK A01 T00191024  RH  074%=      5-min Rain = 0
KCR1 100446Z 26007KT 02/M02 A3037 RMK A01 T00181024  RH  074%=      5-min Rain = 0
KCR1 100447Z 27006KT 02/M02 A3037 RMK A01 T00181023  RH  074%=      5-min Rain = 0
KCR1 100448Z 27007KT 02/M02 A3037 RMK A01 T00181024  RH  074%=      5-min Rain = 0
KCR1 100449Z 27007KT 02/M02 A3037 RMK A01 T00181023  RH  074%=      5-min Rain = 0
KCR1 100450Z 27007KT 02/M02 A3037 RMK A01 T00191023  RH  074%=      5-min Rain = 0
KCR1 100451Z 27007KT 02/M02 A3037 RMK A01 T00201023  RH  073%=      5-min Rain = 0
KCR1 100452Z 27007KT 02/M02 A3037 RMK A01 T00201023  RH  073%=      5-min Rain = 0
KCR1 100453Z 27007KT 02/M02 A3037 RMK A01 T00201023  RH  073%=      5-min Rain = 0
KCR1 100454Z 27007KT 02/M02 A3037 RMK A01 T00201023  RH  073%=      5-min Rain = 0
KCR1 100455Z 27007KT 02/M02 A3037 RMK A01 T00201023  RH  073%=      5-min Rain = 0
KCR1 100456Z 27006KT 02/M02 A3037 RMK A01 T00201023  RH  073%=      5-min Rain = 0
KCR1 100457Z 27006KT 02/M02 A3037 RMK A01 T00201023  RH  073%=      5-min Rain = 0
KCR1 100458Z 27006KT 02/M02 A3037 RMK A01 T00191023  RH  073%=      5-min Rain = 0
KCR1 100459Z 27006KT 02/M02 A3037 RMK A01 T00191023  RH  073%=      5-min Rain = 0
KCR1 100500Z 27006KT 02/M02 A3037 RMK A01 T00191023  RH  074%=      5-min Rain = 0
KCR1 100501Z 27006KT 02/M02 A3037 RMK A01 T00191023  RH  073%=      5-min Rain = 0
KCR1 100502Z 27006KT 02/M02 A3037 RMK A01 T00191024  RH  073%=      5-min Rain = 0
KCR1 100503Z 27006KT 02/M02 A3037 RMK A01 T00191024  RH  073%=      5-min Rain = 0
KCR1 100504Z 28005KT 02/M02 A3037 RMK A01 T00191024  RH  073%=      5-min Rain = 0
KCR1 100505Z 27006KT 02/M02 A3037 RMK A01 T00191024  RH  073%=      5-min Rain = 0
KCR1 100506Z 28005KT 02/M02 A3037 RMK A01 T00191024  RH  073%=      5-min Rain = 0
KCR1 100507Z 28006KT 02/M02 A3037 RMK A01 T00191023  RH  074%=      5-min Rain = 0
KCR1 100508Z 28006KT 02/M02 A3037 RMK A01 T00181024  RH  074%=      5-min Rain = 0
KCR1 100509Z 27006KT 02/M02 A3037 RMK A01 T00181024  RH  074%=      5-min Rain = 0
KCR1 100510Z 27006KT 02/M02 A3037 RMK A01 T00181024  RH  074%=      5-min Rain = 0
KCR1 100511Z 27006KT 02/M02 A3037 RMK A01 T00171024  RH  074%=      5-min Rain = 0
KCR1 100512Z 27006KT 02/M02 A3037 RMK A01 T00171023  RH  074%=      5-min Rain = 0
KCR1 100513Z 27006KT 02/M02 A3037 RMK A01 T00171023  RH  075%=      5-min Rain = 0
KCR1 100514Z 28006KT 02/M02 A3037 RMK A01 T00171023  RH  074%=      5-min Rain = 0
KCR1 100515Z 27006KT 02/M02 A3037 RMK A01 T00171024  RH  075%=      5-min Rain = 0
KCR1 100516Z 28006KT 02/M02 A3037 RMK A01 T00161024  RH  075%=      5-min Rain = 0
KCR1 100517Z 28006KT 02/M02 A3037 RMK A01 T00161023  RH  075%=      5-min Rain = 0
KCR1 100518Z 28006KT 02/M02 A3037 RMK A01 T00161023  RH  075%=      5-min Rain = 0
KCR1 100519Z 27006KT 02/M02 A3037 RMK A01 T00151024  RH  075%=      5-min Rain = 0
KCR1 100520Z 27006KT 02/M02 A3037 RMK A01 T00151024  RH  075%=      5-min Rain = 0
KCR1 100521Z 27006KT 02/M02 A3037 RMK A01 T00151023  RH  075%=      5-min Rain = 0
KCR1 100522Z 27006KT 02/M02 A3037 RMK A01 T00151023  RH  075%=      5-min Rain = 0
KCR1 100523Z 27006KT 02/M02 A3037 RMK A01 T00151023  RH  075%=      5-min Rain = 0
KCR1 100524Z 27006KT 02/M02 A3037 RMK A01 T00161023  RH  075%=      5-min Rain = 0
KCR1 100525Z 27006KT 02/M02 A3037 RMK A01 T00161023  RH  075%=      5-min Rain = 0
KCR1 100526Z 27006KT 02/M02 A3037 RMK A01 T00161023  RH  075%=      5-min Rain = 0
KCR1 100527Z 27006KT 02/M02 A3037 RMK A01 T00161023  RH  075%=      5-min Rain = 0
KCR1 100528Z 28006KT 02/M02 A3037 RMK A01 T00161023  RH  075%=      5-min Rain = 0
KCR1 100529Z 28006KT 02/M02 A3037 RMK A01 T00161023  RH  075%=      5-min Rain = 0
KCR1 100530Z 27005KT 02/M02 A3037 RMK A01 T00161023  RH  075%=      5-min Rain = 0
KCR1 100531Z 28005KT 02/M02 A3037 RMK A01 T00161023  RH  075%=      5-min Rain = 0
KCR1 100532Z 28006KT 02/M02 A3037 RMK A01 T00161023  RH  075%=      5-min Rain = 0
KCR1 100533Z 28006KT 02/M02 A3037 RMK A01 T00161023  RH  075%=      5-min Rain = 0
KCR1 100534Z 28005KT 02/M02 A3037 RMK A01 T00161023  RH  075%=      5-min Rain = 0
KCR1 100535Z 28005KT 02/M02 A3037 RMK A01 T00161023  RH  075%=      5-min Rain = 0
KCR1 100536Z 28005KT 02/M02 A3037 RMK A01 T00161023  RH  075%=      5-min Rain = 0
KCR1 100537Z 28005KT 02/M02 A3036 RMK A01 T00151023  RH  075%=      5-min Rain = 0
KCR1 100538Z 27005KT 02/M02 A3036 RMK A01 T00151024  RH  076%=      5-min Rain = 0
KCR1 100539Z 27005KT 01/M02 A3036 RMK A01 T00141024  RH  076%=      5-min Rain = 0
KCR1 100540Z 27005KT 01/M02 A3036 RMK A01 T00141024  RH  076%=      5-min Rain = 0
KCR1 100541Z 27005KT 01/M02 A3036 RMK A01 T00131024  RH  076%=      5-min Rain = 0
KCR1 100542Z 27005KT 01/M02 A3036 RMK A01 T00131024  RH  076%=      5-min Rain = 0
KCR1 100543Z 27005KT 01/M02 A3036 RMK A01 T00131024  RH  077%=      5-min Rain = 0
KCR1 100544Z 27005KT 01/M02 A3036 RMK A01 T00121024  RH  077%=      5-min Rain = 0
KCR1 100545Z 27005KT 01/M02 A3036 RMK A01 T00121024  RH  077%=      5-min Rain = 0
KCR1 100546Z 27005KT 01/M02 A3036 RMK A01 T00121024  RH  077%=      5-min Rain = 0
KCR1 100547Z 27005KT 01/M03 A3036 RMK A01 T00121025  RH  077%=      5-min Rain = 0
KCR1 100548Z 27005KT 01/M03 A3036 RMK A01 T00111025  RH  077%=      5-min Rain = 0
KCR1 100549Z 27005KT 01/M03 A3036 RMK A01 T00101025  RH  077%=      5-min Rain = 0
KCR1 100550Z 27005KT 01/M03 A3036 RMK A01 T00091025  RH  078%=      5-min Rain = 0
KCR1 100551Z 27005KT 01/M03 A3036 RMK A01 T00091025  RH  078%=      5-min Rain = 0
KCR1 100552Z 26005KT 01/M02 A3036 RMK A01 T00091024  RH  078%=      5-min Rain = 0
KCR1 100553Z 26006KT 01/M02 A3036 RMK A01 T00091024  RH  078%=      5-min Rain = 0
KCR1 100554Z 26006KT 01/M02 A3036 RMK A01 T00091024  RH  078%=      5-min Rain = 0
KCR1 100555Z 27006KT 01/M02 A3036 RMK A01 T00101024  RH  078%=      5-min Rain = 0
KCR1 100556Z 27006KT 01/M02 A3036 RMK A01 T00101024  RH  078%=      5-min Rain = 0
KCR1 100557Z 27006KT 01/M02 A3036 RMK A01 T00101024  RH  078%=      5-min Rain = 0
KCR1 100558Z 27006KT 01/M02 A3036 RMK A01 T00101023  RH  078%=      5-min Rain = 0
KCR1 100559Z 27006KT 01/M02 A3036 RMK A01 T00101023  RH  079%=      5-min Rain = 0

Page generated in 0.0977 seconds.